W4HSV Weather Reports


time (UTC)temp
C
wind
direction
speed
KPH
gust
KPH
rain 1hr
cm
rain 24hr
cm
rain mn
cm
humidity
%
barometer
mb
20260906062137 26 17 8.0 14.5 0.00 0.10 0.00 81 1012.3
20260906062023 26 13 8.0 9.7 0.00 0.10 0.00 81 1012.4
20260906061930 26 35 4.8 9.7 0.00 0.10 0.00 81 1012.4
20260906061901 26 36 3.2 8.0 0.00 0.10 0.00 81 1012.4
20260906061831 26 36 0.0 11.3 0.00 0.10 0.00 80 1012.4
20260906061544 27 280 1.6 11.3 0.00 0.10 0.00 81 1012.2
20260906061429 27 280 1.6 11.3 0.00 0.10 0.00 81 1012.2
20260906061336 27 297 3.2 11.3 0.00 0.10 0.00 81 1012.2
20260906061226 27 232 3.2 11.3 0.00 0.10 0.00 81 1012.1
20260906061132 26 268 4.8 11.3 0.00 0.10 0.00 80 1012.1
20260906061018 26 260 4.8 11.3 0.00 0.10 0.00 81 1012.1
20260906060925 26 215 3.2 9.7 0.00 0.10 0.00 80 1012.1
20260906060831 26 231 3.2 11.3 0.00 0.10 0.00 80 1012.1
20260906060722 26 211 4.8 11.3 0.00 0.10 0.00 80 1012.0
20260906060629 26 227 6.4 11.3 0.00 0.10 0.00 80 1012.1
20260906060536 26 215 6.4 11.3 0.00 0.10 0.00 80 1012.1
20260906060424 26 209 6.4 11.3 0.00 0.10 0.00 80 1012.1
20260906060350 26 205 6.4 11.3 0.00 0.10 0.00 80 1012.1
20260906060324 26 180 8.0 11.3 0.00 0.10 0.00 81 1012.1
20260906060056 26 207 8.0 11.3 0.00 0.10 0.00 81 1012.1
20260906055921 26 192 6.4 11.3 0.00 0.10 0.00 81 1012.2
20260906055829 26 196 4.8 11.3 0.00 0.10 0.00 81 1012.1
20260906055756 26 190 6.4 9.7 0.00 0.10 0.00 81 1012.0
20260906055621 26 182 4.8 9.7 0.00 0.10 0.00 81 1012.1
20260906055528 26 184 4.8 12.9 0.00 0.10 0.00 81 1012.1
20260906055420 26 175 4.8 12.9 0.00 0.10 0.00 81 1012.1
20260906055327 26 197 6.4 12.9 0.00 0.10 0.00 81 1012.1
20260906055233 26 174 6.4 12.9 0.00 0.10 0.00 81 1012.0
20260906055120 26 194 6.4 14.5 0.00 0.10 0.00 81 1012.2
20260906055026 26 198 6.4 14.5 0.00 0.10 0.00 81 1012.1
20260906054953 26 178 6.4 14.5 0.00 0.10 0.00 81 1012.1
20260906054822 26 145 6.4 14.5 0.00 0.10 0.00 82 1012.2
20260906054753 26 192 8.0 14.5 0.00 0.10 0.00 82 1012.2
20260906054527 26 199 8.0 14.5 0.00 0.10 0.00 82 1012.3
20260906054434 26 202 9.7 14.5 0.00 0.10 0.10 82 1012.4
20260906054325 26 182 9.7 14.5 0.00 0.10 0.10 82 1012.3
20260906054232 26 204 6.4 11.3 0.00 0.10 0.10 82 1012.3
20260906054138 26 217 4.8 11.3 0.00 0.10 0.10 82 1012.2
20260906054024 26 171 4.8 11.3 0.00 0.10 0.10 83 1012.2
20260906053931 26 161 4.8 11.3 0.00 0.10 0.10 83 1012.2
20260906053823 26 190 4.8 11.3 0.00 0.10 0.10 83 1012.2
20260906053728 26 145 4.8 11.3 0.00 0.10 0.10 83 1012.2
20260906053634 26 167 4.8 12.9 0.00 0.10 0.10 83 1012.2
20260906053521 26 206 4.8 12.9 0.00 0.10 0.10 83 1012.2
20260906053449 26 194 6.4 12.9 0.00 0.10 0.10 83 1012.3
20260906053333 26 178 4.8 12.9 0.00 0.10 0.10 83 1012.2
20260906053307 26 170 4.8 12.9 0.00 0.10 0.10 83 1012.2
20260906053018 26 138 6.4 19.3 0.00 0.10 0.10 83 1012.2
20260906052925 26 133 8.0 19.3 0.00 0.10 0.10 83 1012.2
20260906052830 26 142 9.7 19.3 0.00 0.10 0.10 83 1012.2
20260906052738 26 154 6.4 19.3 0.00 0.10 0.10 83 1012.3
20260906052629 26 125 8.0 19.3 0.00 0.10 0.10 83 1012.3
20260906052538 26 112 9.7 19.3 0.00 0.10 0.10 83 1012.4
20260906052424 26 103 9.7 19.3 0.00 0.10 0.10 83 1012.3
20260906052332 26 42 11.3 19.3 0.00 0.10 0.10 84 1012.3
20260906052240 26 109 12.9 19.3 0.00 0.10 0.10 84 1012.3
20260906052125 26 84 11.3 19.3 0.00 0.10 0.10 84 1012.3
20260906052051 26 96 8.0 17.7 0.00 0.10 0.10 85 1012.3
20260906051941 26 109 4.8 9.7 0.00 0.10 0.10 85 1012.3
20260906051827 26 113 4.8 9.7 0.00 0.10 0.10 85 1012.2
20260906051758 26 111 3.2 6.4 0.00 0.10 0.10 85 1012.2
20260906051532 25 128 1.6 4.8 0.00 0.10 0.10 84 1012.0
20260906051422 25 64 0.0 0.0 0.00 0.10 0.10 84 1012.0
20260906051330 25 64 0.0 0.0 0.00 0.10 0.10 83 1012.0
20260906051257 25 64 0.0 0.0 0.00 0.10 0.10 83 1011.8
20260906051123 26 64 0.0 0.0 0.00 0.10 0.10 83 1011.8
20260906051030 26 64 0.0 0.0 0.00 0.10 0.10 82 1011.8
20260906050936 25 64 0.0 0.0 0.00 0.10 0.10 83 1011.8
20260906050828 26 64 0.0 0.0 0.00 0.10 0.10 83 1011.7
20260906050736 26 64 0.0 0.0 0.00 0.10 0.10 84 1011.7
20260906050642 26 64 0.0 0.0 0.00 0.10 0.10 84 1011.7
20260906050549 26 64 0.0 0.0 0.00 0.10 0.10 84 1011.6
20260906050435 26 64 0.0 0.0 0.00 0.10 0.10 84 1011.6
20260906050323 26 64 0.0 0.0 0.00 0.10 0.10 84 1011.6
20260906050257 26 64 0.0 0.0 0.00 0.10 0.10 84 1011.6
20260906050029 26 64 0.0 0.0 0.00 0.10 0.10 83 1011.6
20260906045937 26 64 0.0 0.0 0.00 0.10 0.10 83 1011.5
20260906045824 26 64 0.0 0.0 0.00 0.10 0.10 84 1011.6
20260906045751 26 64 0.0 0.0 0.00 0.10 0.10 83 1011.6
20260906045619 26 64 0.0 0.0 0.00 0.10 0.10 83 1011.7
20260906045527 26 64 0.0 0.0 0.00 0.10 0.10 83 1011.7
20260906045433 26 64 0.0 0.0 0.00 0.10 0.10 83 1011.6
20260906045321 26 64 0.0 0.0 0.00 0.10 0.10 83 1011.8
20260906045227 26 64 0.0 0.0 0.00 0.10 0.10 83 1011.7
20260906045134 26 64 0.0 0.0 0.00 0.10 0.10 83 1011.8
20260906045046 26 64 0.0 0.0 0.00 0.10 0.10 83 1011.8
20260906044932 26 64 0.0 0.0 0.00 0.10 0.10 82 1011.8
20260906044810 26 64 0.0 0.0 0.00 0.10 0.10 82 1012.0
20260906044523 26 64 0.0 0.0 0.00 0.10 0.10 83 1012.1
20260906044434 26 64 0.0 0.0 0.00 0.10 0.10 83 1012.0
20260906044319 26 64 0.0 0.0 0.00 0.10 0.10 83 1012.1
20260906044228 26 64 0.0 0.0 0.00 0.10 0.10 83 1012.1
20260906044135 26 64 0.0 0.0 0.00 0.10 0.10 83 1012.1
20260906044022 26 64 0.0 0.0 0.00 0.10 0.10 83 1012.0
20260906043933 26 64 0.0 0.0 0.00 0.10 0.10 83 1012.1
20260906043820 26 64 0.0 0.0 0.00 0.10 0.10 83 1012.1
20260906043748 26 64 0.0 0.0 0.00 0.10 0.10 83 1012.1
20260906043655 26 64 0.0 0.0 0.00 0.10 0.10 83 1012.1
20260906043520 26 64 0.0 0.0 0.00 0.10 0.10 83 1012.1
20260906043427 26 64 0.0 0.0 0.00 0.10 0.10 83 1012.2
20260906043335 26 64 0.0 0.0 0.00 0.10 0.10 83 1012.2
20260906043309 26 64 0.0 0.0 0.00 0.10 0.10 82 1012.2
20260906043023 26 64 0.0 0.0 0.00 0.10 0.10 83 1012.2
20260906042930 26 64 0.0 0.0 0.00 0.10 0.10 83 1012.3
20260906042837 26 64 0.0 0.0 0.00 0.10 0.10 83 1012.2
20260906042750 26 64 0.0 0.0 0.00 0.10 0.10 83 1012.2
20260906042635 26 64 0.0 0.0 0.00 0.10 0.10 83 1012.2
20260906042521 26 64 0.0 0.0 0.00 0.10 0.10 82 1012.2
20260906042429 26 64 0.0 0.0 0.00 0.10 0.10 82 1012.1
20260906042337 26 64 0.0 0.0 0.00 0.10 0.10 82 1012.2
20260906042222 26 64 0.0 0.0 0.00 0.10 0.10 82 1012.2
20260906042134 26 64 0.0 0.0 0.00 0.10 0.10 82 1012.3
20260906042022 26 64 0.0 0.0 0.00 0.10 0.10 83 1012.2
20260906041928 26 64 0.0 0.0 0.00 0.10 0.10 83 1012.3
20260906041811 26 64 0.0 0.0 0.00 0.10 0.10 83 1012.3
20260906041524 26 64 0.0 0.0 0.00 0.10 0.10 83 1012.3
20260906041431 26 64 0.0 0.0 0.00 0.10 0.10 83 1012.2
20260906041319 26 64 0.0 0.0 0.00 0.10 0.10 83 1012.2
20260906041245 26 64 0.0 0.0 0.00 0.10 0.10 83 1012.2
20260906041132 26 64 0.0 0.0 0.00 0.10 0.10 82 1012.3
20260906041045 26 64 0.0 0.0 0.00 0.10 0.10 82 1012.2
20260906040931 26 64 0.0 0.0 0.00 0.10 0.10 82 1012.2
20260906040819 26 64 0.0 0.0 0.00 0.10 0.10 82 1012.2
20260906040725 26 64 0.0 0.0 0.00 0.10 0.10 82 1012.1
20260906040632 26 64 0.0 0.0 0.00 0.10 0.10 82 1012.2
20260906040519 26 64 0.0 0.0 0.00 0.10 0.10 82 1012.2
20260906040432 26 64 0.0 0.0 0.00 0.10 0.10 82 1012.1
20260906040308 26 64 0.0 0.0 0.00 0.10 0.10 82 1012.2
20260906040021 26 64 0.0 0.0 0.00 0.10 0.10 82 1012.2
20260906035928 26 64 0.0 1.6 0.00 0.10 0.10 82 1012.2
20260906035819 26 64 0.0 3.2 0.00 0.10 0.10 82 1012.1
20260906035746 26 64 0.0 3.2 0.00 0.10 0.10 82 1012.1
20260906035632 26 64 0.0 3.2 0.00 0.10 0.10 82 1012.1
20260906035559 26 64 0.0 3.2 0.00 0.10 0.10 82 1012.1
20260906035424 26 64 0.0 3.2 0.00 0.10 0.10 82 1012.1
20260906035330 26 64 0.0 3.2 0.00 0.10 0.10 82 1012.1
20260906035221 26 64 0.0 3.2 0.00 0.10 0.10 82 1012.2
20260906035129 26 64 1.6 3.2 0.00 0.10 0.10 81 1012.2
20260906035032 26 64 0.0 3.2 0.00 0.10 0.10 82 1012.3
20260906034920 26 64 0.0 1.6 0.00 0.10 0.10 83 1012.3
20260906034803 26 145 0.0 1.6 0.00 0.10 0.10 83 1012.2
20260906034537 26 145 0.0 0.0 0.00 0.10 0.10 83 1012.2
20260906034422 26 145 0.0 0.0 0.00 0.10 0.10 83 1012.2
20260906034331 26 145 0.0 0.0 0.00 0.10 0.10 83 1012.2
20260906034238 26 145 0.0 1.6 0.00 0.10 0.10 83 1012.1
20260906034128 26 145 0.0 3.2 0.00 0.10 0.10 83 1012.2
20260906034035 26 145 0.0 3.2 0.00 0.10 0.10 83 1012.1
20260906033922 26 145 0.0 3.2 0.00 0.10 0.10 83 1012.2
20260906033828 26 145 0.0 3.2 0.00 0.10 0.10 83 1012.2
20260906033734 26 145 0.0 3.2 0.00 0.10 0.10 84 1012.2
20260906033640 26 145 0.0 3.2 0.00 0.10 0.10 84 1012.1
20260906033530 26 145 0.0 3.2 0.00 0.10 0.10 84 1012.2
20260906033436 26 145 0.0 3.2 0.00 0.10 0.10 84 1012.1
20260906033322 26 145 0.0 3.2 0.00 0.10 0.10 82 1012.1
20260906033252 26 145 0.0 3.2 0.00 0.10 0.10 82 1012.1
20260906033030 26 360 0.0 0.0 0.00 0.10 0.10 81 1012.2
20260906032937 26 360 0.0 0.0 0.00 0.10 0.10 81 1012.2
20260906032825 26 360 0.0 0.0 0.00 0.10 0.10 81 1012.1
20260906032731 26 360 0.0 0.0 0.00 0.10 0.10 81 1012.1
20260906032618 26 360 0.0 0.0 0.00 0.10 0.10 80 1012.1
20260906032526 26 360 0.0 0.0 0.00 0.10 0.10 80 1012.0
20260906032456 26 360 0.0 0.0 0.00 0.10 0.10 81 1012.1
20260906032321 26 360 0.0 0.0 0.00 0.10 0.10 81 1012.0
20260906032230 26 360 0.0 0.0 0.00 0.10 0.10 81 1011.9
20260906032159 26 360 0.0 0.0 0.00 0.10 0.10 81 1012.0
20260906032024 26 360 0.0 0.0 0.00 0.10 0.10 81 1011.9
20260906031932 26 360 0.0 0.0 0.00 0.10 0.10 80 1012.0
20260906031824 26 360 0.0 0.0 0.00 0.10 0.10 80 1012.0
20260906031753 26 360 0.0 0.0 0.00 0.10 0.10 80 1012.0
20260906031547 26 360 0.0 0.0 0.00 0.10 0.10 80 1012.0
20260906031452 26 360 0.0 0.0 0.00 0.10 0.10 80 1012.0
20260906031318 26 360 0.0 0.0 0.00 0.10 0.10 80 1012.0
20260906031229 26 360 0.0 0.0 0.00 0.10 0.10 80 1012.0
20260906031137 26 360 0.0 0.0 0.00 0.10 0.10 80 1012.0
20260906031024 26 360 0.0 0.0 0.00 0.10 0.10 80 1012.0
20260906030951 26 360 0.0 0.0 0.00 0.10 0.10 80 1012.0
20260906030836 26 360 0.0 0.0 0.00 0.10 0.10 81 1012.0
20260906030724 26 360 0.0 0.0 0.00 0.10 0.10 81 1012.0
20260906030634 26 360 0.0 0.0 0.00 0.10 0.10 81 1012.0
20260906030541 26 360 0.0 0.0 0.00 0.10 0.10 80 1012.0
20260906030448 26 360 0.0 0.0 0.00 0.10 0.10 80 1012.0
20260906030415 26 360 0.0 0.0 0.00 0.10 0.10 80 1012.0
20260906030323 26 360 0.0 0.0 0.00 0.10 0.10 80 1011.9
20260906030035 26 360 0.0 0.0 0.00 0.10 0.10 80 1012.1
20260906025926 26 360 0.0 0.0 0.00 0.10 0.10 80 1012.1
20260906025832 26 360 0.0 0.0 0.00 0.10 0.10 81 1012.0
20260906025719 26 360 0.0 0.0 0.00 0.10 0.10 81 1012.1
20260906025626 26 360 0.0 0.0 0.00 0.10 0.10 81 1012.1
20260906025533 26 360 0.0 0.0 0.00 0.10 0.10 81 1012.2
20260906025424 26 360 0.0 0.0 0.00 0.10 0.10 81 1012.1
20260906025353 26 360 0.0 0.0 0.00 0.10 0.10 80 1012.1
20260906025219 26 360 0.0 0.0 0.00 0.10 0.10 80 1012.1
20260906025126 26 360 0.0 0.0 0.00 0.10 0.10 80 1012.1
20260906025054 26 360 0.0 0.0 0.00 0.10 0.10 81 1012.1
20260906024919 26 360 0.0 1.6 0.00 0.10 0.10 81 1012.0
20260906024847 26 360 0.0 1.6 0.00 0.10 0.10 81 1012.0
20260906024822 26 360 0.0 3.2 0.00 0.10 0.10 81 1012.0
20260906024535 26 360 0.0 3.2 0.00 0.10 0.10 81 1012.0
20260906024442 26 360 0.0 3.2 0.00 0.10 0.10 81 1012.0
20260906024328 26 360 0.0 3.2 0.00 0.10 0.10 81 1012.0
20260906024235 26 360 0.0 3.2 0.00 0.10 0.10 81 1012.0
20260906024126 26 360 1.6 3.2 0.00 0.10 0.10 80 1011.9
20260906024035 26 360 1.6 3.2 0.00 0.10 0.10 80 1011.8
20260906023922 26 360 1.6 3.2 0.00 0.10 0.10 80 1011.8
20260906023849 26 360 1.6 3.2 0.00 0.10 0.10 80 1011.8
20260906023733 26 360 1.6 3.2 0.00 0.10 0.10 80 1011.7
20260906023620 26 360 1.6 3.2 0.00 0.10 0.10 80 1011.7
20260906023531 26 360 1.6 3.2 0.00 0.10 0.10 80 1011.6
20260906023438 26 360 1.6 4.8 0.00 0.10 0.10 80 1011.7
20260906023345 26 360 0.0 4.8 0.00 0.10 0.10 80 1011.7
20260906023255 26 360 0.0 4.8 0.00 0.10 0.10 80 1011.7
20260906023028 26 360 0.0 4.8 0.00 0.10 0.10 80 1011.7
20260906022920 26 360 0.0 4.8 0.00 0.10 0.10 80 1011.6
20260906022847 26 360 0.0 4.8 0.00 0.10 0.10 80 1011.6
20260906022734 26 360 1.6 4.8 0.00 0.10 0.10 79 1011.7
20260906022621 26 360 1.6 4.8 0.00 0.10 0.10 79 1011.6
20260906022527 26 360 0.0 4.8 0.00 0.10 0.10 78 1011.5
20260906022419 26 360 1.6 4.8 0.00 0.10 0.10 79 1011.4
20260906022326 26 360 1.6 4.8 0.00 0.10 0.10 79 1011.5
20260906022233 26 360 3.2 4.8 0.00 0.10 0.10 79 1011.5
20260906022141 26 360 3.2 4.8 0.00 0.10 0.10 79 1011.4
20260906022026 26 360 3.2 4.8 0.00 0.10 0.10 79 1011.4
20260906021933 26 360 3.2 4.8 0.00 0.10 0.10 79 1011.4
20260906021823 26 360 1.6 4.8 0.00 0.10 0.10 79 1011.4
20260906021754 26 360 0.0 3.2 0.00 0.10 0.10 79 1011.4
20260906021526 26 360 0.0 0.0 0.00 0.10 0.10 79 1011.4
20260906021433 26 360 0.0 0.0 0.00 0.10 0.10 79 1011.3
20260906021321 26 360 0.0 0.0 0.00 0.10 0.10 79 1011.3
20260906021250 26 360 0.0 1.6 0.00 0.10 0.10 79 1011.3
20260906021137 26 360 0.0 3.2 0.00 0.10 0.10 79 1011.4
20260906021043 26 360 0.0 3.2 0.00 0.10 0.10 79 1011.4
20260906020930 26 360 0.0 3.2 0.00 0.10 0.10 79 1011.3
20260906020837 26 360 0.0 3.2 0.00 0.10 0.10 79 1011.3
20260906020725 26 360 0.0 3.2 0.00 0.10 0.10 79 1011.3
20260906020634 26 360 0.0 3.2 0.00 0.10 0.10 79 1011.3
20260906020522 26 360 0.0 3.2 0.00 0.10 0.10 79 1011.3
20260906020450 26 360 0.0 3.2 0.00 0.10 0.10 79 1011.3
20260906020337 26 360 0.0 3.2 0.00 0.10 0.10 79 1011.3
20260906020307 26 360 0.0 3.2 0.00 0.10 0.10 79 1011.3
20260906020024 26 360 0.0 4.8 0.00 0.10 0.10 79 1011.2
20260906015951 26 360 1.6 4.8 0.00 0.10 0.10 79 1011.2
20260906015837 26 360 1.6 4.8 0.00 0.10 0.10 79 1011.2
20260906015723 26 360 1.6 4.8 0.00 0.10 0.10 78 1011.2
20260906015630 26 360 1.6 4.8 0.00 0.10 0.10 77 1011.2
20260906015518 26 360 3.2 4.8 0.00 0.10 0.10 78 1011.2
20260906015428 26 360 3.2 4.8 0.00 0.10 0.10 77 1011.2
20260906015335 26 360 1.6 4.8 0.00 0.10 0.10 78 1011.2
20260906015243 26 360 0.0 4.8 0.00 0.10 0.10 78 1011.1
20260906015129 26 360 1.6 4.8 0.00 0.10 0.10 78 1011.0
20260906015037 26 360 1.6 4.8 0.00 0.10 0.10 79 1011.1
20260906014944 26 360 1.6 4.8 0.00 0.10 0.10 79 1011.1
20260906014910 26 360 1.6 4.8 0.00 0.10 0.10 78 1011.1
20260906014824 26 360 3.2 4.8 0.00 0.10 0.10 79 1011.1
20260906014537 26 360 1.6 4.8 0.00 0.10 0.10 78 1011.1
20260906014424 26 360 0.0 3.2 0.00 0.10 0.10 78 1011.1
20260906014350 26 360 0.0 0.0 0.00 0.10 0.10 78 1011.1
20260906014220 26 360 0.0 1.6 0.00 0.10 0.10 78 1011.0
20260906014127 26 360 0.0 1.6 0.00 0.10 0.10 78 1011.0
20260906014034 26 360 0.0 1.6 0.00 0.10 0.10 78 1011.0
20260906013941 26 360 0.0 1.6 0.00 0.10 0.10 78 1011.0
20260906013826 26 360 0.0 1.6 0.00 0.10 0.10 78 1011.0
20260906013753 26 360 0.0 1.6 0.00 0.10 0.10 77 1010.9
20260906013639 26 360 0.0 1.6 0.00 0.10 0.10 77 1010.8
20260906013528 26 360 0.0 1.6 0.00 0.10 0.10 77 1010.9
20260906013435 26 360 0.0 1.6 0.00 0.10 0.10 78 1010.8
20260906013402 26 360 0.0 1.6 0.00 0.10 0.10 79 1010.8
20260906013311 26 360 0.0 3.2 0.00 0.10 0.10 79 1010.8
20260906013024 26 360 0.0 3.2 0.00 0.10 0.10 78 1010.8
20260906012935 26 360 0.0 3.2 0.00 0.10 0.10 78 1010.7
20260906012843 26 360 0.0 6.4 0.00 0.10 0.10 78 1010.8
20260906012728 26 360 0.0 6.4 0.00 0.10 0.10 78 1010.8
20260906012635 26 360 0.0 6.4 0.00 0.10 0.10 78 1010.8
20260906012521 26 360 1.6 6.4 0.00 0.10 0.10 79 1010.8
20260906012428 26 360 1.6 6.4 0.00 0.10 0.10 79 1010.8
20260906012339 26 360 1.6 6.4 0.00 0.10 0.10 78 1011.0
20260906012224 26 360 1.6 6.4 0.00 0.10 0.10 78 1010.9
20260906012131 26 360 3.2 6.4 0.00 0.10 0.10 79 1010.8
20260906012018 26 360 3.2 6.4 0.00 0.10 0.10 79 1010.8
20260906011926 26 360 3.2 6.4 0.00 0.10 0.10 78 1010.8
20260906011853 26 360 1.6 3.2 0.00 0.10 0.10 78 1010.8
20260906011806 26 360 1.6 3.2 0.00 0.10 0.10 78 1010.8
20260906011518 26 360 1.6 4.8 0.00 0.10 0.10 78 1010.8
20260906011425 26 360 0.0 4.8 0.00 0.10 0.10 78 1010.8
20260906011332 26 360 0.0 4.8 0.00 0.10 0.10 78 1010.8
20260906011219 26 360 1.6 4.8 0.00 0.10 0.10 78 1010.7
20260906011130 26 360 1.6 4.8 0.00 0.10 0.10 78 1010.8
20260906011018 26 360 1.6 6.4 0.00 0.10 0.10 78 1010.8
20260906010925 26 360 1.6 6.4 0.00 0.10 0.10 78 1010.7
20260906010831 26 360 1.6 6.4 0.00 0.10 0.10 77 1010.7
20260906010737 26 360 1.6 6.4 0.00 0.10 0.10 77 1010.7
20260906010627 26 360 1.6 6.4 0.00 0.10 0.10 77 1010.7
20260906010555 26 360 3.2 6.4 0.00 0.10 0.10 78 1010.7
20260906010421 26 360 3.2 6.4 0.00 0.10 0.10 78 1010.7
20260906010328 27 360 3.2 6.4 0.00 0.10 0.10 78 1010.6
20260906010259 26 360 4.8 6.4 0.00 0.10 0.10 78 1010.6
20260906010036 27 360 4.8 6.4 0.00 0.10 0.10 78 1010.6
20260906005922 27 360 3.2 4.8 0.00 0.10 0.10 77 1010.6
20260906005848 27 28 3.2 6.4 0.00 0.10 0.10 77 1010.5
20260906005734 26 42 3.2 6.4 0.00 0.10 0.10 77 1010.6
20260906005619 27 42 3.2 6.4 0.00 0.10 0.10 77 1010.7
20260906005528 27 61 3.2 6.4 0.00 0.10 0.10 76 1010.6
20260906005420 27 55 3.2 6.4 0.00 0.10 0.10 77 1010.5
20260906005327 27 53 3.2 6.4 0.00 0.10 0.10 77 1010.5
20260906005232 27 57 3.2 6.4 0.00 0.10 0.10 77 1010.5
20260906005120 27 42 3.2 6.4 0.00 0.10 0.10 77 1010.4
20260906005047 27 42 3.2 6.4 0.00 0.10 0.10 77 1010.4
20260906004953 27 42 3.2 6.4 0.00 0.10 0.10 77 1010.4
20260906004822 27 42 4.8 6.4 0.00 0.10 0.10 77 1010.5
20260906004752 27 42 4.8 6.4 0.00 0.10 0.10 77 1010.5
20260906004525 27 36 4.8 6.4 0.00 0.10 0.10 77 1010.4
20260906004433 27 37 4.8 6.4 0.00 0.10 0.10 77 1010.4
20260906004321 27 37 3.2 6.4 0.00 0.10 0.10 77 1010.4
20260906004253 27 37 1.6 6.4 0.00 0.10 0.10 76 1010.5
20260906004119 27 69 0.0 6.4 0.00 0.10 0.10 76 1010.5
20260906004027 27 87 0.0 6.4 0.00 0.10 0.10 76 1010.6
20260906003935 27 87 0.0 6.4 0.00 0.10 0.10 77 1010.4
20260906003823 27 87 1.6 6.4 0.00 0.10 0.10 77 1010.5
20260906003732 27 121 1.6 6.4 0.00 0.10 0.10 77 1010.5
20260906003620 27 98 4.8 6.4 0.00 0.10 0.10 77 1010.5
20260906003527 27 119 3.2 8.0 0.00 0.10 0.10 77 1010.5
20260906003454 27 117 3.2 8.0 0.00 0.10 0.10 76 1010.5
20260906003422 27 116 1.6 3.2 0.00 0.10 0.10 76 1010.5
20260906003331 27 116 0.0 4.8 0.00 0.10 0.10 74 1010.5
20260906003044 27 116 0.0 4.8 0.03 0.10 0.10 75 1010.5
20260906002934 27 116 0.0 4.8 0.08 0.10 0.10 75 1010.5
20260906002820 27 116 0.0 4.8 0.10 0.10 0.10 75 1010.6
20260906002727 27 219 0.0 4.8 0.10 0.10 0.10 76 1010.5
20260906002635 27 219 1.6 6.4 0.10 0.10 0.10 77 1010.5
20260906002521 27 219 1.6 6.4 0.10 0.10 0.10 75 1010.7
20260906002449 27 208 1.6 6.4 0.10 0.10 0.10 76 1010.6
20260906002319 27 128 0.0 6.4 0.10 0.10 0.10 76 1010.6
20260906002227 27 128 0.0 6.4 0.10 0.10 0.10 75 1010.7
20260906002133 27 128 0.0 12.9 0.10 0.10 0.10 75 1010.6
20260906002019 27 173 0.0 12.9 0.10 0.10 0.10 75 1010.7
20260906001926 27 173 1.6 12.9 0.10 0.10 0.10 75 1010.7
20260906001833 27 158 1.6 12.9 0.10 0.10 0.10 75 1010.8
20260906001807 27 149 1.6 12.9 0.10 0.10 0.10 75 1010.8
20260906001521 27 190 3.2 12.9 0.10 0.10 0.10 75 1010.8
20260906001428 27 193 4.8 22.5 0.10 0.10 0.10 75 1010.8
20260906001334 27 186 6.4 25.7 0.10 0.10 0.10 76 1010.9
20260906001225 27 197 6.4 25.7 0.10 0.10 0.10 75 1010.9
20260906001132 27 180 8.0 25.7 0.10 0.10 0.10 76 1010.9
20260906001018 27 152 9.7 25.7 0.10 0.10 0.10 76 1011.1
20260906000925 27 121 9.7 25.7 0.10 0.10 0.10 75 1011.1
20260906000831 27 113 8.0 25.7 0.10 0.10 0.10 75 1011.0
20260906000758 27 123 8.0 25.7 0.10 0.10 0.10 75 1011.1
20260906000629 27 131 11.3 25.7 0.10 0.10 0.10 74 1011.1
20260906000518 27 171 14.5 25.7 0.10 0.10 0.10 75 1011.2
20260906000425 27 156 12.9 24.1 0.10 0.10 0.10 75 1011.2
20260906000330 27 181 9.7 16.1 0.10 0.10 0.10 75 1011.3
20260906000303 27 142 9.7 16.1 0.10 0.10 0.10 76 1011.3
20260906000019 27 134 11.3 22.5 0.10 0.10 0.10 76 1011.2
20260905235926 27 194 9.7 22.5 0.10 0.10 0.10 76 1011.3
20260905235834 27 170 9.7 22.5 0.10 0.10 0.10 77 1011.3
20260905235742 27 172 9.7 22.5 0.10 0.10 0.10 77 1011.3
20260905235628 27 171 11.3 22.5 0.10 0.10 0.10 77 1011.4
20260905235534 27 135 11.3 22.5 0.10 0.10 0.10 79 1011.2
20260905235423 27 74 9.7 24.1 0.10 0.10 0.10 79 1011.3
20260905235331 27 116 9.7 24.1 0.10 0.10 0.10 79 1011.4
20260905235218 27 149 14.5 24.1 0.10 0.10 0.10 77 1011.4
20260905235125 27 130 12.9 24.1 0.10 0.10 0.10 79 1011.4
20260905235031 26 128 11.3 29.0 0.10 0.10 0.10 80 1011.4
20260905234923 26 130 9.7 37.0 0.10 0.10 0.10 80 1011.3
20260905234830 26 115 12.9 37.0 0.10 0.10 0.10 81 1011.3
20260905234800 26 53 16.1 43.5 0.10 0.10 0.10 81 1011.3
20260905234534 26 109 17.7 43.5 0.10 0.10 0.10 80 1011.3
20260905234425 26 104 17.7 43.5 0.10 0.10 0.10 81 1011.3
20260905234331 26 146 19.3 43.5 0.10 0.10 0.10 80 1011.2
20260905234219 26 115 24.1 43.5 0.10 0.10 0.10 80 1011.2
20260905234126 27 111 25.7 43.5 0.10 0.10 0.10 80 1011.2
20260905234033 27 118 29.0 43.5 0.10 0.10 0.10 80 1011.3
20260905233921 27 132 32.2 43.5 0.10 0.10 0.10 79 1011.3
20260905233853 27 113 30.6 43.5 0.10 0.10 0.10 79 1011.3
20260905233719 28 126 27.4 43.5 0.10 0.10 0.10 78 1011.4
20260905233626 28 122 25.7 43.5 0.10 0.10 0.10 78 1011.5
20260905233532 28 126 25.7 43.5 0.10 0.10 0.10 77 1011.5
20260905233419 29 183 29.0 43.5 0.10 0.10 0.10 75 1011.5
20260905233326 30 128 30.6 43.5 0.10 0.10 0.10 68 1011.3
20260905233301 30 136 29.0 43.5 0.10 0.10 0.10 68 1011.3
20260905233034 32 103 27.4 40.2 0.10 0.10 0.10 65 1010.9
20260905232942 33 90 25.7 40.2 0.10 0.10 0.10 64 1010.8
20260905232829 33 142 27.4 40.2 0.10 0.10 0.10 64 1010.8
20260905232718 35 86 29.0 41.8 0.08 0.08 0.08 61 1010.7
20260905232645 35 148 22.5 35.4 0.08 0.08 0.08 60 1010.7
20260905232530 36 123 12.9 29.0 0.00 0.00 0.00 59 1010.7
20260905232438 36 90 8.0 12.9 0.00 0.00 0.00 57 1010.5
20260905232326 36 44 8.0 11.3 0.00 0.00 0.00 56 1010.4
20260905232253 36 32 8.0 11.3 0.00 0.00 0.00 55 1010.3
20260905232119 36 42 6.4 8.0 0.00 0.00 0.00 54 1010.2
20260905232030 36 41 4.8 8.0 0.00 0.00 0.00 53 1010.3
20260905231918 36 31 3.2 6.4 0.00 0.00 0.00 54 1010.1
20260905231825 36 348 3.2 6.4 0.00 0.00 0.00 54 1010.2
20260905231753 36 331 3.2 6.4 0.00 0.00 0.00 55 1010.2
20260905231529 36 333 3.2 6.4 0.00 0.00 0.00 55 1010.2
20260905231437 36 351 4.8 6.4 0.00 0.00 0.00 55 1010.2
20260905231324 36 12 4.8 6.4 0.00 0.00 0.00 53 1010.1
20260905231233 36 5 3.2 4.8 0.00 0.00 0.00 53 1010.1
20260905231121 36 5 1.6 4.8 0.00 0.00 0.00 52 1010.2
20260905231029 36 5 1.6 4.8 0.00 0.00 0.00 52 1010.2
20260905230921 36 5 1.6 4.8 0.00 0.00 0.00 52 1010.1
20260905230827 36 5 3.2 4.8 0.00 0.00 0.00 52 1010.1
20260905230735 36 5 3.2 4.8 0.00 0.00 0.00 52 1010.1
20260905230643 36 5 3.2 4.8 0.00 0.00 0.00 52 1010.2
20260905230528 36 5 3.2 4.8 0.00 0.00 0.00 52 1010.1
20260905230418 36 360 3.2 4.8 0.00 0.00 0.00 52 1010.2
20260905230324 36 360 3.2 4.8 0.00 0.00 0.00 51 1010.1
20260905230255 36 10 3.2 4.8 0.00 0.00 0.00 51 1010.1
20260905230048 36 10 3.2 4.8 0.00 0.00 0.00 51 1010.1
20260905225933 36 10 3.2 4.8 0.00 0.00 0.00 51 1010.0
20260905225823 36 10 3.2 6.4 0.00 0.00 0.00 51 1010.0
20260905225731 36 10 3.2 6.4 0.00 0.00 0.00 51 1010.1
20260905225637 36 360 3.2 6.4 0.00 0.00 0.00 51 1010.1
20260905225523 36 360 3.2 6.4 0.00 0.00 0.00 51 1010.1
20260905225429 36 360 3.2 6.4 0.00 0.00 0.00 50 1010.1
20260905225334 36 360 4.8 6.4 0.00 0.00 0.00 50 1010.1
20260905225227 37 5 4.8 6.4 0.00 0.00 0.00 51 1010.1
20260905225133 37 5 3.2 8.0 0.00 0.00 0.00 50 1010.1
20260905225020 37 5 4.8 8.0 0.00 0.00 0.00 50 1010.1
20260905224929 37 5 4.8 8.0 0.00 0.00 0.00 50 1010.0
20260905224809 37 11 4.8 8.0 0.00 0.00 0.00 51 1010.1
20260905224523 37 11 4.8 8.0 0.00 0.00 0.00 50 1010.0
20260905224452 37 355 4.8 8.0 0.00 0.00 0.00 49 1010.1
20260905224357 37 351 4.8 8.0 0.00 0.00 0.00 49 1010.1
20260905224222 37 22 4.8 8.0 0.00 0.00 0.00 49 1010.1
20260905224130 37 5 4.8 8.0 0.00 0.00 0.00 48 1010.0
20260905224020 37 43 3.2 8.0 0.00 0.00 0.00 49 1010.0
20260905223928 37 29 3.2 8.0 0.00 0.00 0.00 48 1010.0
20260905223834 37 34 3.2 8.0 0.00 0.00 0.00 48 1010.1
20260905223741 37 47 4.8 8.0 0.00 0.00 0.00 49 1010.0
20260905223628 37 19 4.8 8.0 0.00 0.00 0.00 48 1010.1
20260905223555 37 42 4.8 8.0 0.00 0.00 0.00 49 1010.1
20260905223420 37 24 3.2 8.0 0.00 0.00 0.00 48 1010.1
20260905223303 37 9 3.2 8.0 0.00 0.00 0.00 48 1010.1
20260905223056 37 5 4.8 8.0 0.00 0.00 0.00 48 1010.2
20260905222922 37 24 6.4 8.0 0.00 0.00 0.00 48 1010.1
20260905222830 37 29 4.8 8.0 0.00 0.00 0.00 48 1010.2
20260905222721 37 40 3.2 8.0 0.00 0.00 0.00 47 1010.1
20260905222648 37 78 4.8 8.0 0.00 0.00 0.00 47 1010.2
20260905222554 37 41 4.8 8.0 0.00 0.00 0.00 46 1010.0
20260905222420 37 59 4.8 8.0 0.00 0.00 0.00 46 1010.1
20260905222349 37 57 3.2 6.4 0.00 0.00 0.00 46 1010.2
20260905222234 37 47 3.2 6.4 0.00 0.00 0.00 47 1010.1
20260905222125 37 89 1.6 6.4 0.00 0.00 0.00 46 1010.1
20260905222031 37 34 1.6 4.8 0.00 0.00 0.00 46 1010.1
20260905221918 37 360 3.2 8.0 0.00 0.00 0.00 47 1010.1
20260905221845 38 360 3.2 8.0 0.00 0.00 0.00 46 1010.1
20260905221817 38 360 1.6 8.0 0.00 0.00 0.00 46 1010.1
20260905221533 38 325 1.6 8.0 0.00 0.00 0.00 46 1010.1
20260905221420 38 325 1.6 8.0 0.00 0.00 0.00 46 1010.1
20260905221346 38 30 3.2 8.0 0.00 0.00 0.00 47 1010.2
20260905221232 38 38 3.2 12.9 0.00 0.00 0.00 47 1010.2
20260905221140 38 20 4.8 14.5 0.00 0.00 0.00 47 1010.2
20260905221027 38 15 4.8 14.5 0.00 0.00 0.00 47 1010.2
20260905220919 38 348 3.2 14.5 0.00 0.00 0.00 46 1010.2
20260905220826 37 355 3.2 14.5 0.00 0.00 0.00 47 1010.3
20260905220732 37 355 4.8 14.5 0.00 0.00 0.00 47 1010.2
20260905220639 37 9 4.8 14.5 0.00 0.00 0.00 47 1010.2
20260905220525 37 11 4.8 14.5 0.00 0.00 0.00 47 1010.2
20260905220432 37 9 8.0 14.5 0.00 0.00 0.00 48 1010.2
20260905220339 38 5 8.0 14.5 0.00 0.00 0.00 48 1010.3
20260905220253 37 346 6.4 12.9 0.00 0.00 0.00 48 1010.3
20260905220026 37 53 4.8 14.5 0.00 0.00 0.00 47 1010.2
20260905215933 37 44 6.4 16.1 0.00 0.00 0.00 47 1010.2
20260905215820 37 360 6.4 16.1 0.00 0.00 0.00 47 1010.3
20260905215732 37 28 6.4 16.1 0.00 0.00 0.00 47 1010.2
20260905215620 37 49 6.4 16.1 0.00 0.00 0.00 47 1010.3
20260905215548 37 40 8.0 16.1 0.00 0.00 0.00 47 1010.3
20260905215453 37 11 8.0 16.1 0.00 0.00 0.00 48 1010.3
20260905215318 37 44 9.7 16.1 0.00 0.00 0.00 48 1010.3
20260905215224 37 23 9.7 16.1 0.00 0.00 0.00 47 1010.2
20260905215131 37 41 8.0 16.1 0.00 0.00 0.00 46 1010.3
20260905215022 38 61 6.4 12.9 0.00 0.00 0.00 46 1010.3
20260905214929 38 42 6.4 12.9 0.00 0.00 0.00 46 1010.3
20260905214836 38 65 6.4 11.3 0.00 0.00 0.00 46 1010.3
20260905214806 38 43 6.4 11.3 0.00 0.00 0.00 46 1010.3
20260905214523 38 50 6.4 14.5 0.00 0.00 0.00 48 1010.4
20260905214431 38 26 4.8 14.5 0.00 0.00 0.00 47 1010.3
20260905214318 38 67 4.8 14.5 0.00 0.00 0.00 47 1010.3
20260905214225 38 44 4.8 14.5 0.00 0.00 0.00 47 1010.3
20260905214132 38 54 4.8 14.5 0.00 0.00 0.00 46 1010.2
20260905214018 38 30 6.4 16.1 0.00 0.00 0.00 46 1010.3
20260905213949 38 39 8.0 16.1 0.00 0.00 0.00 46 1010.4
20260905213835 38 53 6.4 16.1 0.00 0.00 0.00 48 1010.2
20260905213722 38 36 1.6 16.1 0.00 0.00 0.00 46 1010.3
20260905213650 38 71 1.6 16.1 0.00 0.00 0.00 49 1010.3
20260905213536 38 355 3.2 16.1 0.00 0.00 0.00 46 1010.4
20260905213443 38 350 4.8 16.1 0.00 0.00 0.00 45 1010.3
20260905213329 38 12 4.8 8.0 0.00 0.00 0.00 45 1010.4
20260905213304 38 5 3.2 8.0 0.00 0.00 0.00 46 1010.4
20260905213018 38 144 1.6 8.0 0.00 0.00 0.00 45 1010.3
20260905212946 38 84 1.6 8.0 0.00 0.00 0.00 45 1010.3
20260905212853 38 290 1.6 8.0 0.00 0.00 0.00 44 1010.3
20260905212719 38 290 3.2 12.9 0.00 0.00 0.00 45 1010.3
20260905212630 38 282 4.8 14.5 0.00 0.00 0.00 45 1010.3
20260905212557 38 309 4.8 14.5 0.00 0.00 0.00 45 1010.4
20260905212422 38 10 4.8 14.5 0.00 0.00 0.00 46 1010.3
20260905212330 38 351 6.4 14.5 0.00 0.00 0.00 45 1010.2
20260905212237 38 32 6.4 14.5 0.00 0.00 0.00 45 1010.4
20260905212125 38 5 6.4 14.5 0.00 0.00 0.00 46 1010.3
20260905212055 38 19 6.4 14.5 0.00 0.00 0.00 46 1010.2
20260905211920 38 22 6.4 14.5 0.00 0.00 0.00 46 1010.4
20260905211848 38 360 8.0 14.5 0.00 0.00 0.00 45 1010.3
20260905211818 38 355 6.4 14.5 0.00 0.00 0.00 45 1010.3
20260905211550 38 69 1.6 12.9 0.00 0.00 0.00 44 1010.3
20260905211422 38 355 1.6 12.9 0.00 0.00 0.00 44 1010.4
20260905211327 38 355 3.2 12.9 0.00 0.00 0.00 43 1010.4
20260905211233 38 355 3.2 12.9 0.00 0.00 0.00 45 1010.3
20260905211119 38 337 3.2 12.9 0.00 0.00 0.00 45 1010.4
20260905211027 38 320 3.2 12.9 0.00 0.00 0.00 45 1010.4
20260905210934 38 318 4.8 12.9 0.00 0.00 0.00 45 1010.4
20260905210825 38 9 8.0 12.9 0.00 0.00 0.00 46 1010.4
20260905210753 38 26 8.0 12.9 0.00 0.00 0.00 46 1010.3
20260905210658 38 22 6.4 12.9 0.00 0.00 0.00 46 1010.4
20260905210543 38 47 1.6 9.7 0.00 0.00 0.00 45 1010.3
20260905210430 38 20 1.6 9.7 0.00 0.00 0.00 46 1010.4
20260905210337 38 57 3.2 9.7 0.00 0.00 0.00 47 1010.4
20260905210312 38 360 4.8 9.7 0.00 0.00 0.00 47 1010.4
20260905210024 38 355 4.8 9.7 0.00 0.00 0.00 46 1010.3
20260905205951 38 5 4.8 9.7 0.00 0.00 0.00 45 1010.3
20260905205858 38 291 6.4 9.7 0.00 0.00 0.00 46 1010.2
20260905205723 38 290 6.4 14.5 0.00 0.00 0.00 47 1010.3
20260905205630 38 346 6.4 14.5 0.00 0.00 0.00 46 1010.3
20260905205557 38 348 6.4 14.5 0.00 0.00 0.00 48 1010.4
20260905205427 38 9 3.2 14.5 0.00 0.00 0.00 46 1010.3
20260905205335 38 295 3.2 14.5 0.00 0.00 0.00 47 1010.3
20260905205241 38 319 6.4 14.5 0.00 0.00 0.00 47 1010.4
20260905205127 38 10 6.4 14.5 0.00 0.00 0.00 47 1010.4
20260905205033 38 336 9.7 14.5 0.00 0.00 0.00 47 1010.4
20260905204959 38 333 9.7 14.5 0.00 0.00 0.00 48 1010.4
20260905204827 38 22 6.4 14.5 0.00 0.00 0.00 48 1010.5
20260905204758 38 350 4.8 12.9 0.00 0.00 0.00 48 1010.5
20260905204532 38 355 3.2 4.8 0.00 0.00 0.00 47 1010.5
20260905204418 38 294 1.6 4.8 0.00 0.00 0.00 46 1010.5
20260905204324 38 155 1.6 6.4 0.00 0.00 0.00 45 1010.5
20260905204236 38 211 1.6 6.4 0.00 0.00 0.00 45 1010.6
20260905204122 38 209 1.6 6.4 0.00 0.00 0.00 45 1010.5
20260905204030 38 194 1.6 12.9 0.00 0.00 0.00 45 1010.6
20260905203918 38 298 1.6 14.5 0.00 0.00 0.00 45 1010.6
20260905203825 38 79 1.6 14.5 0.00 0.00 0.00 45 1010.6
20260905203735 38 44 1.6 14.5 0.00 0.00 0.00 48 1010.7
20260905203621 38 17 3.2 14.5 0.00 0.00 0.00 45 1010.7
20260905203527 38 17 4.8 14.5 0.00 0.00 0.00 45 1010.7
20260905203433 38 36 4.8 14.5 0.00 0.00 0.00 48 1010.7
20260905203342 38 31 8.0 14.5 0.00 0.00 0.00 47 1010.7
20260905203316 38 309 11.3 14.5 0.00 0.00 0.00 47 1010.7
20260905203029 38 27 9.7 14.5 0.00 0.00 0.00 47 1010.7
20260905202935 38 355 8.0 14.5 0.00 0.00 0.00 46 1010.8
20260905202842 38 55 9.7 14.5 0.00 0.00 0.00 47 1010.7
20260905202728 38 65 8.0 14.5 0.00 0.00 0.00 46 1010.7
20260905202635 38 53 4.8 12.9 0.00 0.00 0.00 47 1010.8
20260905202525 38 11 4.8 12.9 0.00 0.00 0.00 47 1010.8
20260905202432 38 360 4.8 12.9 0.00 0.00 0.00 47 1010.8
20260905202318 37 5 4.8 12.9 0.00 0.00 0.00 47 1010.8
20260905202224 37 324 4.8 12.9 0.00 0.00 0.00 48 1010.8
20260905202132 37 329 6.4 12.9 0.00 0.00 0.00 48 1010.8
20260905202022 37 349 8.0 12.9 0.00 0.00 0.00 50 1010.8
20260905201929 37 12 4.8 12.9 0.00 0.00 0.00 49 1010.8
20260905201835 37 338 1.6 8.0 0.00 0.00 0.00 47 1010.9
20260905201805 37 340 1.6 8.0 0.00 0.00 0.00 47 1010.9
20260905201538 37 235 3.2 8.0 0.00 0.00 0.00 47 1010.9
20260905201428 38 154 3.2 8.0 0.00 0.00 0.00 46 1010.9
20260905201335 38 223 4.8 8.0 0.00 0.00 0.00 47 1011.0
20260905201221 38 248 4.8 8.0 0.00 0.00 0.00 46 1011.0
20260905201128 38 186 3.2 8.0 0.00 0.00 0.00 46 1011.0
20260905201035 38 179 3.2 8.0 0.00 0.00 0.00 46 1011.1
20260905200942 38 311 4.8 9.7 0.00 0.00 0.00 47 1011.1
20260905200832 38 284 3.2 8.0 0.00 0.00 0.00 49 1011.0
20260905200720 38 10 4.8 8.0 0.00 0.00 0.00 48 1011.1
20260905200646 38 5 4.8 8.0 0.00 0.00 0.00 48 1011.1
20260905200531 38 223 1.6 9.7 0.00 0.00 0.00 48 1011.2
20260905200436 38 36 1.6 9.7 0.00 0.00 0.00 48 1011.1
20260905200342 38 30 3.2 9.7 0.00 0.00 0.00 52 1011.1
20260905200255 38 30 4.8 9.7 0.00 0.00 0.00 48 1011.1
20260905200027 38 319 3.2 12.9 0.00 0.00 0.00 49 1011.3
20260905195935 38 70 3.2 16.1 0.00 0.00 0.00 47 1011.3
20260905195820 38 26 6.4 16.1 0.00 0.00 0.00 46 1011.3
20260905195727 38 300 8.0 16.1 0.00 0.00 0.00 47 1011.4
20260905195637 38 321 6.4 16.1 0.00 0.00 0.00 47 1011.4
20260905195524 38 276 1.6 16.1 0.00 0.00 0.00 47 1011.4
20260905195432 38 24 1.6 16.1 0.00 0.00 0.00 47 1011.4
20260905195339 38 355 4.8 16.1 0.00 0.00 0.00 48 1011.5
20260905195226 38 355 8.0 16.1 0.00 0.00 0.00 48 1011.5
20260905195132 38 313 9.7 16.1 0.00 0.00 0.00 48 1011.4
20260905195023 38 336 6.4 12.9 0.00 0.00 0.00 48 1011.5
20260905194929 38 355 6.4 12.9 0.00 0.00 0.00 47 1011.5
20260905194837 38 9 6.4 12.9 0.00 0.00 0.00 50 1011.5
20260905194808 38 10 8.0 12.9 0.00 0.00 0.00 50 1011.5
20260905194526 38 336 8.0 12.9 0.00 0.00 0.00 48 1011.5
20260905194433 38 355 6.4 12.9 0.00 0.00 0.00 48 1011.5
20260905194319 37 296 6.4 14.5 0.00 0.00 0.00 48 1011.4
20260905194227 37 248 4.8 16.1 0.00 0.00 0.00 49 1011.5
20260905194134 37 15 4.8 16.1 0.00 0.00 0.00 49 1011.5
20260905194020 37 291 6.4 16.1 0.00 0.00 0.00 51 1011.4
20260905193947 37 340 6.4 16.1 0.00 0.00 0.00 52 1011.6
20260905193836 37 331 6.4 16.1 0.00 0.00 0.00 51 1011.5
20260905193722 37 12 8.0 16.1 0.00 0.00 0.00 51 1011.6
20260905193628 37 331 9.7 16.1 0.00 0.00 0.00 51 1011.6
20260905193556 37 9 8.0 16.1 0.00 0.00 0.00 51 1011.7
20260905193440 37 19 3.2 14.5 0.00 0.00 0.00 48 1011.6
20260905193328 37 63 3.2 14.5 0.00 0.00 0.00 48 1011.6
20260905193303 37 5 4.8 14.5 0.00 0.00 0.00 47 1011.6
20260905193036 37 70 8.0 14.5 0.00 0.00 0.00 48 1011.6
20260905192922 37 41 6.4 14.5 0.00 0.00 0.00 47 1011.6
20260905192830 37 49 9.7 14.5 0.00 0.00 0.00 48 1011.6
20260905192757 37 26 9.7 14.5 0.00 0.00 0.00 48 1011.7
20260905192626 37 61 6.4 14.5 0.00 0.00 0.00 49 1011.6
20260905192532 37 36 6.4 14.5 0.00 0.00 0.00 49 1011.6
20260905192458 37 319 8.0 14.5 0.00 0.00 0.00 50 1011.6
20260905192343 37 346 4.8 16.1 0.00 0.00 0.00 49 1011.6
20260905192229 37 297 3.2 16.1 0.00 0.00 0.00 50 1011.7
20260905192155 37 14 3.2 16.1 0.00 0.00 0.00 48 1011.7
20260905192021 37 51 4.8 16.1 0.00 0.00 0.00 50 1011.8
20260905191930 37 355 4.8 16.1 0.00 0.00 0.00 49 1011.7
20260905191838 37 331 6.4 16.1 0.00 0.00 0.00 52 1011.8
20260905191809 37 292 8.0 16.1 0.00 0.00 0.00 50 1011.8
20260905191523 37 307 8.0 16.1 0.00 0.00 0.00 50 1011.8
20260905191435 37 333 6.4 12.9 0.00 0.00 0.00 51 1011.8
20260905191321 37 355 6.4 12.9 0.00 0.00 0.00 51 1011.9
20260905191229 37 322 4.8 9.7 0.00 0.00 0.00 52 1011.9
20260905191135 37 30 4.8 9.7 0.00 0.00 0.00 51 1011.9
20260905191022 37 36 3.2 9.7 0.00 0.00 0.00 53 1011.9
20260905190929 37 5 4.8 9.7 0.00 0.00 0.00 49 1011.9
20260905190820 37 360 3.2 9.7 0.00 0.00 0.00 51 1011.9
20260905190728 37 302 3.2 8.0 0.00 0.00 0.00 50 1012.0
20260905190656 37 22 3.2 8.0 0.00 0.00 0.00 51 1012.0
20260905190523 37 78 3.2 9.7 0.00 0.00 0.00 50 1012.0
20260905190430 37 308 4.8 9.7 0.00 0.00 0.00 51 1012.1
20260905190336 37 314 4.8 9.7 0.00 0.00 0.00 52 1012.1
20260905190312 37 335 3.2 9.7 0.00 0.00 0.00 52 1012.1
20260905190024 37 303 3.2 9.7 0.00 0.00 0.00 50 1012.1
20260905185929 37 56 6.4 9.7 0.00 0.00 0.00 50 1012.1
20260905185856 37 76 4.8 12.9 0.00 0.00 0.00 51 1012.2
20260905185727 37 91 4.8 14.5 0.00 0.00 0.00 50 1012.2
20260905185632 37 83 6.4 14.5 0.00 0.00 0.00 50 1012.2
20260905185537 37 66 4.8 17.7 0.00 0.00 0.00 54 1012.2
20260905185423 37 121 6.4 17.7 0.00 0.00 0.00 54 1012.2
20260905185330 37 144 6.4 17.7 0.00 0.00 0.00 53 1012.2
20260905185258 37 131 6.4 17.7 0.00 0.00 0.00 52 1012.3
20260905185143 37 56 6.4 17.7 0.00 0.00 0.00 49 1012.2
20260905185049 37 28 6.4 17.7 0.00 0.00 0.00 51 1012.3
20260905184921 37 348 8.0 17.7 0.00 0.00 0.00 49 1012.3
20260905184828 37 46 8.0 17.7 0.00 0.00 0.00 50 1012.3
20260905184757 37 77 8.0 14.5 0.00 0.00 0.00 52 1012.3
20260905184530 37 15 8.0 14.5 0.00 0.00 0.00 51 1012.3
20260905184421 37 321 8.0 14.5 0.00 0.00 0.00 52 1012.4
20260905184328 37 348 8.0 14.5 0.00 0.00 0.00 53 1012.4
20260905184234 37 346 6.4 14.5 0.00 0.00 0.00 53 1012.4
20260905184121 37 27 4.8 14.5 0.00 0.00 0.00 52 1012.4
20260905184028 37 337 4.8 14.5 0.00 0.00 0.00 52 1012.4
20260905183919 37 318 4.8 14.5 0.00 0.00 0.00 53 1012.5
20260905183825 37 283 8.0 14.5 0.00 0.00 0.00 54 1012.4
20260905183733 37 329 8.0 14.5 0.00 0.00 0.00 54 1012.4
20260905183621 37 346 4.8 12.9 0.00 0.00 0.00 52 1012.4
20260905183548 37 317 3.2 12.9 0.00 0.00 0.00 52 1012.4
20260905183434 36 294 4.8 12.9 0.00 0.00 0.00 53 1012.5
20260905183342 36 277 8.0 12.9 0.00 0.00 0.00 54 1012.5
20260905183256 36 302 8.0 12.9 0.00 0.00 0.00 52 1012.5
20260905183029 36 253 6.4 14.5 0.00 0.00 0.00 53 1012.5
20260905182956 36 5 4.8 14.5 0.00 0.00 0.00 53 1012.5
20260905182823 36 313 4.8 14.5 0.00 0.00 0.00 53 1012.5
20260905182731 36 291 4.8 14.5 0.00 0.00 0.00 54 1012.5
20260905182622 36 261 6.4 14.5 0.00 0.00 0.00 54 1012.6
20260905182530 36 281 6.4 14.5 0.00 0.00 0.00 54 1012.5
20260905182457 36 321 4.8 14.5 0.00 0.00 0.00 54 1012.5
20260905182322 36 307 6.4 14.5 0.00 0.00 0.00 54 1012.5
20260905182228 36 300 9.7 14.5 0.00 0.00 0.00 55 1012.5
20260905182118 36 290 8.0 14.5 0.00 0.00 0.00 54 1012.5
20260905182026 36 315 8.0 16.1 0.00 0.00 0.00 55 1012.5
20260905181932 36 309 8.0 16.1 0.00 0.00 0.00 55 1012.5
20260905181839 36 321 6.4 16.1 0.00 0.00 0.00 55 1012.5
20260905181810 36 311 8.0 16.1 0.00 0.00 0.00 56 1012.5
20260905181526 36 5 8.0 16.1 0.00 0.00 0.00 56 1012.7
20260905181433 36 334 8.0 16.1 0.00 0.00 0.00 56 1012.7
20260905181321 36 355 9.7 16.1 0.00 0.00 0.00 55 1012.7
20260905181228 36 14 6.4 16.1 0.00 0.00 0.00 55 1012.7
20260905181134 36 40 1.6 11.3 0.00 0.00 0.00 54 1012.7
20260905181025 36 109 3.2 11.3 0.00 0.00 0.00 53 1012.7
20260905180932 36 77 3.2 11.3 0.00 0.00 0.00 55 1012.7
20260905180820 36 171 4.8 11.3 0.00 0.00 0.00 53 1012.8
20260905180727 36 109 6.4 11.3 0.00 0.00 0.00 52 1012.8
20260905180634 36 135 6.4 11.3 0.00 0.00 0.00 56 1012.7
20260905180520 36 108 4.8 9.7 0.00 0.00 0.00 54 1012.7
20260905180452 36 80 3.2 11.3 0.00 0.00 0.00 54 1012.8
20260905180358 36 51 1.6 9.7 0.00 0.00 0.00 54 1012.8
20260905180330 36 44 1.6 12.9 0.00 0.00 0.00 55 1012.9
20260905180022 36 327 4.8 12.9 0.00 0.00 0.00 53 1012.9
20260905175929 36 9 4.8 12.9 0.00 0.00 0.00 55 1012.9
20260905175820 36 360 6.4 12.9 0.00 0.00 0.00 54 1012.9
20260905175726 36 25 6.4 12.9 0.00 0.00 0.00 54 1013.0
20260905175632 36 30 8.0 12.9 0.00 0.00 0.00 54 1012.9
20260905175519 36 333 8.0 12.9 0.00 0.00 0.00 56 1012.9
20260905175427 36 337 6.4 12.9 0.00 0.00 0.00 56 1013.0
20260905175318 36 5 3.2 14.5 0.00 0.00 0.00 55 1013.0
20260905175227 36 19 1.6 14.5 0.00 0.00 0.00 56 1013.0
20260905175134 36 261 1.6 14.5 0.00 0.00 0.00 53 1013.0
20260905175021 36 274 1.6 14.5 0.00 0.00 0.00 54 1012.9
20260905174928 36 329 1.6 14.5 0.00 0.00 0.00 54 1013.0
20260905174836 36 329 4.8 14.5 0.00 0.00 0.00 56 1012.9
20260905174811 36 322 8.0 14.5 0.00 0.00 0.00 56 1012.9
20260905174524 36 351 11.3 14.5 0.00 0.00 0.00 56 1013.0
20260905174432 36 5 9.7 14.5 0.00 0.00 0.00 56 1013.0
20260905174320 36 327 8.0 14.5 0.00 0.00 0.00 55 1013.0
20260905174230 36 313 4.8 12.9 0.00 0.00 0.00 56 1013.0
20260905174119 36 355 3.2 8.0 0.00 0.00 0.00 56 1013.1
20260905174027 36 206 4.8 8.0 0.00 0.00 0.00 55 1013.1
20260905173934 36 308 4.8 8.0 0.00 0.00 0.00 55 1013.1
20260905173822 36 339 4.8 8.0 0.00 0.00 0.00 57 1013.0
20260905173748 36 314 4.8 8.0 0.00 0.00 0.00 57 1013.1
20260905173639 36 286 4.8 8.0 0.00 0.00 0.00 56 1013.1
20260905173525 36 252 3.2 8.0 0.00 0.00 0.00 58 1013.1
20260905173432 36 191 1.6 9.7 0.00 0.00 0.00 57 1013.1
20260905173338 36 100 1.6 9.7 0.00 0.00 0.00 55 1013.2
20260905173309 36 186 3.2 9.7 0.00 0.00 0.00 55 1013.2
20260905173026 36 20 4.8 12.9 0.00 0.00 0.00 58 1013.1
20260905172953 36 25 4.8 14.5 0.00 0.00 0.00 56 1013.2
20260905172818 36 5 4.8 14.5 0.00 0.00 0.00 57 1013.1
20260905172725 35 346 4.8 14.5 0.00 0.00 0.00 56 1013.3
20260905172633 35 355 6.4 14.5 0.00 0.00 0.00 57 1013.3
20260905172541 35 323 6.4 14.5 0.00 0.00 0.00 57 1013.3
20260905172447 35 296 6.4 14.5 0.00 0.00 0.00 57 1013.3
20260905172336 35 344 8.0 14.5 0.00 0.00 0.00 58 1013.3
20260905172223 35 321 9.7 16.1 0.00 0.00 0.00 57 1013.3
20260905172129 35 339 11.3 16.1 0.00 0.00 0.00 57 1013.3
20260905172056 35 26 9.7 16.1 0.00 0.00 0.00 57 1013.3
20260905171922 35 360 8.0 16.1 0.00 0.00 0.00 58 1013.4
20260905171829 35 343 8.0 16.1 0.00 0.00 0.00 56 1013.3
20260905171804 35 5 9.7 16.1 0.00 0.00 0.00 58 1013.3
20260905171518 35 328 11.3 16.1 0.00 0.00 0.00 57 1013.3
20260905171425 35 308 11.3 16.1 0.00 0.00 0.00 59 1013.4
20260905171332 35 327 8.0 16.1 0.00 0.00 0.00 59 1013.4
20260905171223 35 339 6.4 11.3 0.00 0.00 0.00 57 1013.4
20260905171130 35 348 6.4 11.3 0.00 0.00 0.00 57 1013.4
20260905171057 35 355 6.4 11.3 0.00 0.00 0.00 58 1013.4
20260905170924 35 223 4.8 11.3 0.00 0.00 0.00 57 1013.4
20260905170832 35 225 4.8 11.3 0.00 0.00 0.00 56 1013.4
20260905170719 35 212 4.8 11.3 0.00 0.00 0.00 56 1013.4
20260905170630 35 114 4.8 11.3 0.00 0.00 0.00 56 1013.3
20260905170536 36 211 6.4 12.9 0.00 0.00 0.00 57 1013.5
20260905170424 36 228 6.4 12.9 0.00 0.00 0.00 58 1013.5
20260905170331 36 302 4.8 12.9 0.00 0.00 0.00 58 1013.4
20260905170301 36 252 4.8 12.9 0.00 0.00 0.00 58 1013.4
20260905170037 35 268 6.4 12.9 0.00 0.00 0.00 57 1013.5
20260905165945 36 309 4.8 12.9 0.00 0.00 0.00 58 1013.4
20260905165831 36 281 3.2 12.9 0.00 0.00 0.00 56 1013.5
20260905165738 36 203 3.2 12.9 0.00 0.00 0.00 58 1013.5
20260905165623 35 313 4.8 12.9 0.00 0.00 0.00 57 1013.5
20260905165530 35 360 4.8 12.9 0.00 0.00 0.00 58 1013.4
20260905165420 35 355 4.8 14.5 0.00 0.00 0.00 56 1013.4
20260905165327 35 342 6.4 14.5 0.00 0.00 0.00 58 1013.5
20260905165234 35 328 8.0 16.1 0.00 0.00 0.00 58 1013.5
20260905165119 35 338 8.0 16.1 0.00 0.00 0.00 59 1013.6
20260905165025 35 346 6.4 16.1 0.00 0.00 0.00 59 1013.7
20260905164931 35 342 6.4 16.1 0.00 0.00 0.00 59 1013.6
20260905164902 35 348 8.0 16.1 0.00 0.00 0.00 59 1013.6
20260905164811 35 319 9.7 16.1 0.00 0.00 0.00 59 1013.6
20260905164543 35 5 11.3 16.1 0.00 0.00 0.00 60 1013.6
20260905164429 35 348 9.7 16.1 0.00 0.00 0.00 61 1013.6
20260905164336 35 355 8.0 16.1 0.00 0.00 0.00 59 1013.7
20260905164228 35 306 9.7 14.5 0.00 0.00 0.00 58 1013.7
20260905164134 35 325 9.7 14.5 0.00 0.00 0.00 59 1013.7
20260905164022 35 335 8.0 14.5 0.00 0.00 0.00 58 1013.6
20260905163948 35 318 8.0 14.5 0.00 0.00 0.00 58 1013.8
20260905163834 35 273 8.0 14.5 0.00 0.00 0.00 60 1013.7
20260905163721 35 253 8.0 12.9 0.00 0.00 0.00 58 1013.8
20260905163631 35 268 4.8 12.9 0.00 0.00 0.00 58 1013.8
20260905163519 35 313 4.8 12.9 0.00 0.00 0.00 59 1013.7
20260905163445 35 341 4.8 12.9 0.00 0.00 0.00 58 1013.8
20260905163331 35 298 8.0 12.9 0.00 0.00 0.00 58 1013.8
20260905163300 35 282 8.0 12.9 0.00 0.00 0.00 59 1013.8
20260905163037 35 309 4.8 12.9 0.00 0.00 0.00 59 1013.8
20260905162925 35 315 3.2 12.9 0.00 0.00 0.00 60 1013.9
20260905162851 35 226 6.4 12.9 0.00 0.00 0.00 61 1014.0
20260905162737 35 5 8.0 12.9 0.00 0.00 0.00 61 1014.0
20260905162623 35 355 6.4 12.9 0.00 0.00 0.00 61 1014.0
20260905162529 35 5 4.8 12.9 0.00 0.00 0.00 60 1014.0
20260905162419 35 355 4.8 12.9 0.00 0.00 0.00 60 1014.1
20260905162346 35 294 6.4 12.9 0.00 0.00 0.00 60 1014.0
20260905162233 35 267 4.8 12.9 0.00 0.00 0.00 59 1014.0
20260905162120 35 284 6.4 12.9 0.00 0.00 0.00 60 1014.1
20260905162027 35 294 6.4 12.9 0.00 0.00 0.00 59 1014.0
20260905161933 35 288 6.4 12.9 0.00 0.00 0.00 60 1014.0
20260905161844 35 327 4.8 9.7 0.00 0.00 0.00 60 1014.0
20260905161815 35 344 3.2 9.7 0.00 0.00 0.00 59 1014.0
20260905161527 35 48 3.2 9.7 0.00 0.00 0.00 61 1014.1
20260905161434 35 53 4.8 9.7 0.00 0.00 0.00 59 1014.1
20260905161325 35 36 4.8 9.7 0.00 0.00 0.00 63 1014.1
20260905161231 34 20 4.8 12.9 0.00 0.00 0.00 62 1014.1
20260905161157 34 5 4.8 12.9 0.00 0.00 0.00 62 1014.1
20260905161023 34 24 4.8 12.9 0.00 0.00 0.00 62 1014.1
20260905160949 34 287 4.8 12.9 0.00 0.00 0.00 61 1014.1
20260905160835 34 318 4.8 12.9 0.00 0.00 0.00 60 1014.1
20260905160720 34 296 4.8 12.9 0.00 0.00 0.00 61 1014.2
20260905160629 34 318 4.8 12.9 0.00 0.00 0.00 61 1014.2
20260905160518 34 301 8.0 12.9 0.00 0.00 0.00 63 1014.2
20260905160423 34 320 6.4 12.9 0.00 0.00 0.00 64 1014.3
20260905160330 34 322 6.4 9.7 0.00 0.00 0.00 63 1014.3
20260905160300 34 327 6.4 9.7 0.00 0.00 0.00 64 1014.3
20260905160057 33 13 6.4 9.7 0.00 0.00 0.00 63 1014.4
20260905155922 33 321 1.6 8.0 0.00 0.00 0.00 64 1014.2
20260905155829 33 259 0.0 8.0 0.00 0.00 0.00 64 1014.3
20260905155736 33 311 0.0 8.0 0.00 0.00 0.00 63 1014.3
20260905155623 33 311 1.6 8.0 0.00 0.00 0.00 63 1014.3
20260905155530 33 23 1.6 8.0 0.00 0.00 0.00 62 1014.2
20260905155420 33 126 4.8 8.0 0.00 0.00 0.00 61 1014.3
20260905155326 33 126 4.8 8.0 0.00 0.00 0.00 62 1014.3
20260905155253 33 209 4.8 8.0 0.00 0.00 0.00 62 1014.3
20260905155120 33 225 3.2 9.7 0.00 0.00 0.00 61 1014.3
20260905155029 33 186 1.6 9.7 0.00 0.00 0.00 62 1014.3
20260905154919 33 253 1.6 9.7 0.00 0.00 0.00 62 1014.4
20260905154825 33 355 3.2 9.7 0.00 0.00 0.00 63 1014.3
20260905154755 33 355 4.8 9.7 0.00 0.00 0.00 63 1014.3
20260905154528 33 317 6.4 9.7 0.00 0.00 0.00 65 1014.3
20260905154433 33 336 6.4 9.7 0.00 0.00 0.00 63 1014.4
20260905154323 33 313 6.4 9.7 0.00 0.00 0.00 63 1014.3
20260905154230 33 355 4.8 6.4 0.00 0.00 0.00 63 1014.3
20260905154117 33 333 4.8 6.4 0.00 0.00 0.00 63 1014.4
20260905154043 33 322 3.2 6.4 0.00 0.00 0.00 63 1014.4
20260905153929 33 347 1.6 6.4 0.00 0.00 0.00 64 1014.4
20260905153837 33 190 1.6 6.4 0.00 0.00 0.00 64 1014.4
20260905153727 33 287 3.2 6.4 0.00 0.00 0.00 64 1014.4
20260905153633 33 346 1.6 6.4 0.00 0.00 0.00 65 1014.4
20260905153520 33 309 3.2 6.4 0.00 0.00 0.00 65 1014.4
20260905153428 33 295 3.2 8.0 0.00 0.00 0.00 66 1014.5
20260905153335 33 15 3.2 8.0 0.00 0.00 0.00 65 1014.5
20260905153309 33 360 3.2 8.0 0.00 0.00 0.00 65 1014.5
20260905153023 33 5 4.8 8.0 0.00 0.00 0.00 67 1014.5
20260905152930 33 13 4.8 8.0 0.00 0.00 0.00 65 1014.5
20260905152837 33 346 4.8 8.0 0.00 0.00 0.00 66 1014.4
20260905152723 33 360 4.8 8.0 0.00 0.00 0.00 66 1014.4
20260905152634 33 360 4.8 8.0 0.00 0.00 0.00 66 1014.4
20260905152520 33 321 3.2 8.0 0.00 0.00 0.00 65 1014.4
20260905152427 33 275 3.2 12.9 0.00 0.00 0.00 65 1014.3
20260905152332 33 32 4.8 12.9 0.00 0.00 0.00 67 1014.4
20260905152219 33 333 6.4 12.9 0.00 0.00 0.00 66 1014.4
20260905152127 33 360 4.8 12.9 0.00 0.00 0.00 67 1014.4
20260905152036 33 341 4.8 12.9 0.00 0.00 0.00 66 1014.4
20260905151922 33 280 4.8 12.9 0.00 0.00 0.00 66 1014.4
20260905151850 32 325 6.4 12.9 0.00 0.00 0.00 67 1014.3
20260905151800 32 355 6.4 12.9 0.00 0.00 0.00 67 1014.3
20260905151533 32 330 4.8 8.0 0.00 0.00 0.00 67 1014.4
20260905151423 32 5 4.8 8.0 0.00 0.00 0.00 66 1014.5
20260905151351 32 355 3.2 8.0 0.00 0.00 0.00 67 1014.5
20260905151237 32 298 4.8 8.0 0.00 0.00 0.00 67 1014.5
20260905151124 32 360 4.8 8.0 0.00 0.00 0.00 67 1014.4
20260905151031 32 344 3.2 6.4 0.00 0.00 0.00 68 1014.4
20260905150919 32 321 3.2 6.4 0.00 0.00 0.00 69 1014.4
20260905150830 32 313 3.2 4.8 0.00 0.00 0.00 68 1014.4
20260905150757 32 355 1.6 4.8 0.00 0.00 0.00 69 1014.4
20260905150622 32 338 1.6 4.8 0.00 0.00 0.00 69 1014.3
20260905150530 32 320 1.6 4.8 0.00 0.00 0.00 69 1014.3
20260905150457 32 296 3.2 4.8 0.00 0.00 0.00 69 1014.4
20260905150342 32 293 3.2 4.8 0.00 0.00 0.00 68 1014.4
20260905150317 32 307 1.6 4.8 0.00 0.00 0.00 69 1014.4
20260905150030 32 336 1.6 4.8 0.00 0.00 0.00 69 1014.3
20260905145936 32 296 1.6 4.8 0.00 0.00 0.00 69 1014.3
20260905145823 32 306 1.6 4.8 0.00 0.00 0.00 68 1014.4
20260905145731 32 281 1.6 4.8 0.00 0.00 0.00 68 1014.4
20260905145642 32 227 1.6 4.8 0.00 0.00 0.00 68 1014.3
20260905145528 32 271 1.6 4.8 0.00 0.00 0.00 67 1014.3
20260905145433 32 184 1.6 4.8 0.00 0.00 0.00 67 1014.3
20260905145322 32 217 1.6 4.8 0.00 0.00 0.00 67 1014.3
20260905145229 32 218 3.2 4.8 0.00 0.00 0.00 68 1014.4
20260905145136 32 253 3.2 4.8 0.00 0.00 0.00 68 1014.3
20260905145026 32 279 1.6 4.8 0.00 0.00 0.00 69 1014.4
20260905144934 32 244 1.6 4.8 0.00 0.00 0.00 67 1014.4
20260905144900 32 244 1.6 4.8 0.00 0.00 0.00 68 1014.3
20260905144810 32 267 1.6 4.8 0.00 0.00 0.00 68 1014.3
20260905144521 32 294 1.6 4.8 0.00 0.00 0.00 68 1014.3
20260905144433 32 294 1.6 4.8 0.00 0.00 0.00 69 1014.3
20260905144319 32 271 3.2 4.8 0.00 0.00 0.00 70 1014.4
20260905144226 31 271 3.2 4.8 0.00 0.00 0.00 69 1014.5
20260905144133 31 256 3.2 4.8 0.00 0.00 0.00 69 1014.4
20260905144021 31 273 1.6 4.8 0.00 0.00 0.00 69 1014.5
20260905143930 31 290 1.6 4.8 0.00 0.00 0.00 69 1014.5
20260905143837 31 290 1.6 4.8 0.00 0.00 0.00 69 1014.5
20260905143723 31 290 3.2 4.8 0.00 0.00 0.00 71 1014.6
20260905143631 31 277 3.2 4.8 0.00 0.00 0.00 72 1014.5
20260905143519 31 229 3.2 4.8 0.00 0.00 0.00 71 1014.5
20260905143426 31 215 3.2 4.8 0.00 0.00 0.00 73 1014.5
20260905143337 31 279 3.2 4.8 0.00 0.00 0.00 73 1014.6
20260905143308 31 288 1.6 4.8 0.00 0.00 0.00 72 1014.6
20260905143021 31 199 0.0 4.8 0.00 0.00 0.00 72 1014.6
20260905142927 31 198 0.0 4.8 0.00 0.00 0.00 72 1014.6
20260905142819 31 198 0.0 4.8 0.00 0.00 0.00 71 1014.6
20260905142726 31 240 0.0 4.8 0.00 0.00 0.00 72 1014.7
20260905142632 31 229 0.0 4.8 0.00 0.00 0.00 72 1014.6
20260905142519 31 229 1.6 4.8 0.00 0.00 0.00 72 1014.7
20260905142425 31 229 1.6 4.8 0.00 0.00 0.00 71 1014.6
20260905142331 31 201 0.0 4.8 0.00 0.00 0.00 72 1014.7
20260905142222 31 238 0.0 4.8 0.00 0.00 0.00 73 1014.7
20260905142129 31 270 0.0 4.8 0.00 0.00 0.00 73 1014.6
20260905142036 31 273 1.6 4.8 0.00 0.00 0.00 74 1014.7
20260905141923 31 273 1.6 4.8 0.00 0.00 0.00 74 1014.8
20260905141851 31 273 1.6 4.8 0.00 0.00 0.00 74 1014.8
20260905141825 31 304 1.6 4.8 0.00 0.00 0.00 75 1014.8
20260905141518 30 227 0.0 4.8 0.00 0.00 0.00 74 1014.8
20260905141445 30 225 1.6 4.8 0.00 0.00 0.00 75 1014.8
20260905141329 30 258 1.6 4.8 0.00 0.00 0.00 75 1014.8
20260905141236 30 273 1.6 4.8 0.00 0.00 0.00 76 1014.9
20260905141124 30 226 0.0 3.2 0.00 0.00 0.00 76 1014.9
20260905141056 30 192 0.0 3.2 0.00 0.00 0.00 75 1014.9
20260905140922 30 192 0.0 3.2 0.00 0.00 0.00 76 1014.8
20260905140829 30 247 0.0 3.2 0.00 0.00 0.00 76 1014.8
20260905140736 30 247 1.6 3.2 0.00 0.00 0.00 75 1014.9
20260905140624 30 217 0.0 3.2 0.00 0.00 0.00 75 1014.9
20260905140531 30 355 0.0 1.6 0.00 0.00 0.00 76 1014.9
20260905140421 30 355 0.0 1.6 0.00 0.00 0.00 76 1014.9
20260905140347 30 355 0.0 4.8 0.00 0.00 0.00 76 1014.8
20260905140316 30 275 0.0 4.8 0.00 0.00 0.00 76 1014.8
20260905140029 30 275 0.0 4.8 0.00 0.00 0.00 77 1014.8
20260905135920 30 275 0.0 6.4 0.00 0.00 0.00 77 1014.8
20260905135825 30 181 0.0 6.4 0.00 0.00 0.00 77 1014.9
20260905135732 29 181 0.0 6.4 0.00 0.00 0.00 77 1014.9
20260905135620 29 181 0.0 6.4 0.00 0.00 0.00 77 1014.9
20260905135529 29 182 1.6 6.4 0.00 0.00 0.00 77 1014.9
20260905135436 29 182 3.2 6.4 0.00 0.00 0.00 77 1014.9
20260905135327 29 172 1.6 6.4 0.00 0.00 0.00 79 1014.9
20260905135235 29 134 1.6 6.4 0.00 0.00 0.00 78 1014.9
20260905135139 29 201 3.2 6.4 0.00 0.00 0.00 77 1014.9
20260905135025 29 168 3.2 6.4 0.00 0.00 0.00 77 1015.0
20260905134933 29 179 3.2 6.4 0.00 0.00 0.00 78 1014.8
20260905134820 29 215 3.2 6.4 0.00 0.00 0.00 79 1014.9
20260905134754 29 150 3.2 6.4 0.00 0.00 0.00 80 1014.9
20260905134527 29 161 3.2 6.4 0.00 0.00 0.00 80 1014.9
20260905134455 28 137 0.0 4.8 0.00 0.00 0.00 80 1014.9
20260905134321 28 121 0.0 3.2 0.00 0.00 0.00 80 1014.8
20260905134229 28 121 0.0 3.2 0.00 0.00 0.00 80 1014.9
20260905134119 28 121 0.0 3.2 0.00 0.00 0.00 80 1014.8
20260905134026 28 121 0.0 3.2 0.00 0.00 0.00 80 1014.8
20260905133933 28 121 0.0 3.2 0.00 0.00 0.00 81 1014.9
20260905133820 28 156 0.0 1.6 0.00 0.00 0.00 81 1014.9
20260905133727 28 132 0.0 1.6 0.00 0.00 0.00 81 1014.9
20260905133636 28 132 0.0 0.0 0.00 0.00 0.00 81 1015.0
20260905133544 28 113 0.0 3.2 0.00 0.00 0.00 82 1015.0
20260905133432 28 113 0.0 4.8 0.00 0.00 0.00 82 1014.9
20260905133307 28 113 0.0 4.8 0.00 0.00 0.00 82 1014.9
20260905133025 27 109 0.0 4.8 0.00 0.00 0.00 82 1015.0
20260905132953 27 109 0.0 4.8 0.00 0.00 0.00 83 1015.0
20260905132858 27 109 0.0 4.8 0.00 0.00 0.00 83 1015.0
20260905132744 27 109 0.0 4.8 0.00 0.00 0.00 83 1014.9
20260905132630 27 109 0.0 4.8 0.00 0.00 0.00 83 1014.9
20260905132537 27 119 0.0 3.2 0.00 0.00 0.00 83 1014.9
20260905132423 27 155 0.0 3.2 0.00 0.00 0.00 84 1015.0
20260905132335 27 155 0.0 1.6 0.00 0.00 0.00 84 1015.0
20260905132221 27 117 0.0 1.6 0.00 0.00 0.00 85 1014.9
20260905132127 27 86 0.0 1.6 0.00 0.00 0.00 85 1015.0
20260905132035 27 86 0.0 1.6 0.00 0.00 0.00 85 1014.9
20260905131921 27 86 0.0 1.6 0.00 0.00 0.00 85 1014.9
20260905131832 27 86 0.0 1.6 0.00 0.00 0.00 85 1015.0
20260905131803 26 86 0.0 1.6 0.00 0.00 0.00 85 1015.0
20260905131537 26 86 0.0 1.6 0.00 0.00 0.00 86 1015.0
20260905131425 26 86 0.0 1.6 0.00 0.00 0.00 86 1015.0
20260905131332 26 112 0.0 1.6 0.00 0.00 0.00 86 1015.0
20260905131225 26 76 0.0 0.0 0.00 0.00 0.00 86 1015.0
20260905131133 26 76 0.0 1.6 0.00 0.00 0.00 86 1015.1
20260905131041 26 60 0.0 1.6 0.00 0.00 0.00 86 1015.0
20260905130928 26 60 0.0 1.6 0.00 0.00 0.00 86 1015.0
20260905130855 26 60 0.0 1.6 0.00 0.00 0.00 86 1015.0
20260905130721 26 60 0.0 1.6 0.00 0.00 0.00 86 1015.0
20260905130633 26 60 0.0 1.6 0.00 0.00 0.00 86 1014.9
20260905130520 26 60 0.0 1.6 0.00 0.00 0.00 87 1015.0
20260905130427 26 60 0.0 1.6 0.00 0.00 0.00 87 1015.0
20260905130335 26 60 0.0 3.2 0.00 0.00 0.00 87 1014.9
20260905130309 26 60 0.0 4.8 0.00 0.00 0.00 87 1014.9
20260905130041 26 60 0.0 4.8 0.00 0.00 0.00 87 1015.0
20260905125927 26 68 0.0 4.8 0.00 0.00 0.00 88 1015.0
20260905125852 26 68 0.0 4.8 0.00 0.00 0.00 88 1015.0
20260905125737 26 68 0.0 4.8 0.00 0.00 0.00 88 1014.9
20260905125625 25 130 1.6 4.8 0.00 0.00 0.00 88 1015.0
20260905125551 25 130 1.6 4.8 0.00 0.00 0.00 88 1015.0
20260905125422 25 146 1.6 4.8 0.00 0.00 0.00 88 1015.0
20260905125330 25 146 1.6 4.8 0.00 0.00 0.00 88 1015.0
20260905125237 25 113 1.6 3.2 0.00 0.00 0.00 88 1014.9
20260905125124 25 55 0.0 1.6 0.00 0.00 0.00 88 1015.0
20260905125029 25 23 0.0 0.0 0.00 0.00 0.00 88 1015.0
20260905124921 25 23 0.0 0.0 0.00 0.00 0.00 88 1014.9
20260905124827 25 23 0.0 0.0 0.00 0.00 0.00 88 1015.0
20260905124757 25 23 0.0 0.0 0.00 0.00 0.00 88 1015.0
20260905124529 25 23 0.0 0.0 0.00 0.00 0.00 88 1015.0
20260905124456 25 23 0.0 0.0 0.00 0.00 0.00 89 1014.9
20260905124326 25 23 0.0 0.0 0.00 0.00 0.00 89 1014.9
20260905124233 25 23 0.0 0.0 0.00 0.00 0.00 89 1014.9
20260905124120 25 23 0.0 0.0 0.00 0.00 0.00 89 1014.9
20260905124027 25 23 0.0 0.0 0.00 0.00 0.00 89 1014.9
20260905123934 25 23 0.0 0.0 0.00 0.00 0.00 89 1014.9
20260905123820 25 23 0.0 0.0 0.00 0.00 0.00 89 1015.0
20260905123731 25 23 0.0 1.6 0.00 0.00 0.00 89 1014.9
20260905123619 25 23 0.0 1.6 0.00 0.00 0.00 89 1015.0
20260905123527 25 23 0.0 1.6 0.00 0.00 0.00 89 1014.9
20260905123433 25 23 0.0 1.6 0.00 0.00 0.00 89 1015.0
20260905123322 25 23 0.0 1.6 0.00 0.00 0.00 89 1014.9
20260905123258 25 23 0.0 1.6 0.00 0.00 0.00 89 1014.9
20260905123031 25 23 0.0 1.6 0.00 0.00 0.00 90 1015.0
20260905122919 24 23 0.0 1.6 0.00 0.00 0.00 90 1015.0
20260905122827 24 23 0.0 3.2 0.00 0.00 0.00 90 1015.0
20260905122719 24 23 0.0 3.2 0.00 0.00 0.00 90 1015.0
20260905122648 24 23 0.0 3.2 0.00 0.00 0.00 90 1015.0
20260905122554 24 23 0.0 3.2 0.00 0.00 0.00 90 1015.0
20260905122419 24 23 0.0 3.2 0.00 0.00 0.00 90 1015.0
20260905122327 24 23 1.6 3.2 0.00 0.00 0.00 90 1015.0
20260905122234 24 23 1.6 3.2 0.00 0.00 0.00 91 1015.0
20260905122140 24 23 1.6 3.2 0.00 0.00 0.00 91 1014.9
20260905122031 24 23 1.6 3.2 0.00 0.00 0.00 91 1015.0
20260905121919 24 23 1.6 3.2 0.00 0.00 0.00 91 1014.9
20260905121846 24 23 1.6 3.2 0.00 0.00 0.00 91 1014.9
20260905121755 24 23 3.2 3.2 0.00 0.00 0.00 91 1014.9
20260905121529 23 23 1.6 3.2 0.00 0.00 0.00 91 1014.9
20260905121421 23 23 1.6 4.8 0.00 0.00 0.00 91 1014.8
20260905121348 23 23 0.0 4.8 0.00 0.00 0.00 91 1014.8
20260905121233 23 23 0.0 4.8 0.00 0.00 0.00 91 1014.9
20260905121121 23 23 0.0 4.8 0.00 0.00 0.00 91 1014.8
20260905121047 23 23 1.6 4.8 0.00 0.00 0.00 91 1014.8
20260905120933 23 23 0.0 4.8 0.00 0.00 0.00 91 1014.8
20260905120825 23 23 1.6 4.8 0.00 0.00 0.00 92 1014.8
20260905120734 23 23 1.6 4.8 0.00 0.00 0.00 91 1014.8
20260905120621 23 23 1.6 4.8 0.00 0.00 0.00 92 1014.7
20260905120526 23 23 1.6 4.8 0.00 0.00 0.00 92 1014.7
20260905120434 23 23 1.6 4.8 0.00 0.00 0.00 92 1014.7
20260905120400 23 23 1.6 4.8 0.00 0.00 0.00 92 1014.7
20260905120313 23 23 1.6 3.2 0.00 0.00 0.00 92 1014.7
20260905120025 23 23 0.0 3.2 0.00 0.00 0.00 92 1014.7
20260905115931 23 23 0.0 1.6 0.00 0.00 0.00 92 1014.6
20260905115858 23 23 0.0 3.2 0.00 0.00 0.00 92 1014.6
20260905115724 23 23 0.0 3.2 0.00 0.00 0.00 92 1014.7
20260905115631 23 23 0.0 3.2 0.00 0.00 0.00 92 1014.6
20260905115522 23 23 0.0 3.2 0.00 0.00 0.00 91 1014.6
20260905115428 23 23 0.0 4.8 0.00 0.00 0.00 91 1014.6
20260905115336 23 23 0.0 4.8 0.00 0.00 0.00 91 1014.6
20260905115222 23 23 0.0 4.8 0.00 0.00 0.00 91 1014.6
20260905115129 23 23 1.6 4.8 0.00 0.00 0.00 91 1014.5
20260905115020 23 23 1.6 4.8 0.00 0.00 0.00 91 1014.5
20260905114947 23 23 1.6 4.8 0.00 0.00 0.00 91 1014.5
20260905114853 23 23 1.6 6.4 0.00 0.00 0.00 92 1014.5
20260905114801 23 23 3.2 6.4 0.00 0.00 0.00 92 1014.5
20260905114534 23 23 3.2 6.4 0.00 0.00 0.00 92 1014.4
20260905114426 23 23 3.2 6.4 0.00 0.00 0.00 92 1014.4
20260905114333 23 23 3.2 6.4 0.00 0.00 0.00 91 1014.4
20260905114220 23 23 3.2 6.4 0.00 0.00 0.00 91 1014.4
20260905114126 23 23 3.2 6.4 0.00 0.00 0.00 91 1014.4
20260905114033 23 23 3.2 6.4 0.00 0.00 0.00 92 1014.3
20260905113920 23 23 3.2 4.8 0.00 0.00 0.00 92 1014.3
20260905113832 23 23 4.8 4.8 0.00 0.00 0.00 92 1014.3
20260905113720 23 23 3.2 4.8 0.00 0.00 0.00 91 1014.3
20260905113627 23 23 1.6 4.8 0.00 0.00 0.00 91 1014.3
20260905113535 23 23 0.0 0.0 0.00 0.00 0.00 91 1014.2
20260905113424 23 23 0.0 0.0 0.00 0.00 0.00 92 1014.2
20260905113305 23 23 0.0 0.0 0.00 0.00 0.00 92 1014.3
20260905113037 23 23 0.0 0.0 0.00 0.00 0.00 91 1014.2
20260905112923 23 23 0.0 0.0 0.00 0.00 0.00 92 1014.1
20260905112830 23 23 0.0 0.0 0.00 0.00 0.00 92 1014.3
20260905112720 23 23 0.0 0.0 0.00 0.00 0.00 92 1014.2
20260905112627 23 23 0.0 0.0 0.00 0.00 0.00 92 1014.2
20260905112554 23 23 0.0 0.0 0.00 0.00 0.00 92 1014.2
20260905112419 23 23 0.0 0.0 0.00 0.00 0.00 92 1014.2
20260905112325 23 23 0.0 0.0 0.00 0.00 0.00 91 1014.1
20260905112232 23 23 0.0 0.0 0.00 0.00 0.00 91 1014.2
20260905112123 23 23 0.0 0.0 0.00 0.00 0.00 91 1014.1
20260905112030 23 23 0.0 0.0 0.00 0.00 0.00 91 1014.1
20260905111958 23 23 0.0 0.0 0.00 0.00 0.00 91 1014.0
20260905111823 23 23 0.0 0.0 0.00 0.00 0.00 91 1014.0
20260905111757 23 23 0.0 0.0 0.00 0.00 0.00 91 1014.0
20260905111529 23 23 0.0 0.0 0.00 0.00 0.00 91 1013.9
20260905111457 23 23 0.0 0.0 0.00 0.00 0.00 91 1014.0
20260905111322 23 23 0.0 0.0 0.00 0.00 0.00 91 1013.9
20260905111228 23 23 0.0 0.0 0.00 0.00 0.00 91 1014.0
20260905111135 23 23 0.0 0.0 0.00 0.00 0.00 91 1013.9
20260905111023 23 23 0.0 0.0 0.00 0.00 0.00 91 1013.9
20260905110950 23 23 0.0 0.0 0.00 0.00 0.00 91 1013.8
20260905110820 23 23 0.0 0.0 0.00 0.00 0.00 91 1013.8
20260905110728 23 23 0.0 0.0 0.00 0.00 0.00 91 1013.8
20260905110634 23 23 0.0 0.0 0.00 0.00 0.00 91 1013.8
20260905110523 23 23 0.0 0.0 0.00 0.00 0.00 91 1013.9
20260905110431 23 23 0.0 0.0 0.00 0.00 0.00 91 1013.7
20260905110322 23 23 0.0 0.0 0.00 0.00 0.00 91 1013.7
20260905110252 23 23 0.0 0.0 0.00 0.00 0.00 91 1013.7
20260905110025 23 23 0.0 0.0 0.00 0.00 0.00 91 1013.7
20260905105932 23 23 0.0 0.0 0.00 0.00 0.00 91 1013.7
20260905105822 23 23 0.0 0.0 0.00 0.00 0.00 91 1013.7
20260905105730 23 23 0.0 0.0 0.00 0.00 0.00 91 1013.7
20260905105618 23 23 0.0 0.0 0.00 0.00 0.00 91 1013.6
20260905105525 23 23 0.0 0.0 0.00 0.00 0.00 91 1013.6
20260905105430 23 23 0.0 0.0 0.00 0.00 0.00 91 1013.6
20260905105319 23 23 0.0 0.0 0.00 0.00 0.00 91 1013.7
20260905105231 23 23 0.0 0.0 0.00 0.00 0.00 91 1013.6
20260905105119 23 23 0.0 0.0 0.00 0.00 0.00 91 1013.7
20260905105045 23 23 0.0 0.0 0.00 0.00 0.00 91 1013.7
20260905104932 23 23 0.0 0.0 0.00 0.00 0.00 91 1013.7
20260905104820 23 23 0.0 0.0 0.00 0.00 0.00 91 1013.7
20260905104755 23 23 0.0 0.0 0.00 0.00 0.00 91 1013.7
20260905104529 23 23 0.0 0.0 0.00 0.00 0.00 91 1013.7
20260905104435 23 23 0.0 0.0 0.00 0.00 0.00 91 1013.7
20260905104322 23 23 0.0 0.0 0.00 0.00 0.00 91 1013.6
20260905104229 23 23 0.0 0.0 0.00 0.00 0.00 91 1013.7
20260905104121 23 23 0.0 0.0 0.00 0.00 0.00 91 1013.6
20260905104029 23 23 0.0 0.0 0.00 0.00 0.00 91 1013.6
20260905103935 23 23 0.0 0.0 0.00 0.00 0.00 91 1013.6
20260905103841 23 23 0.0 0.0 0.00 0.00 0.00 91 1013.6
20260905103728 23 23 0.0 0.0 0.00 0.00 0.00 90 1013.6
20260905103634 23 23 0.0 0.0 0.00 0.00 0.00 90 1013.6
20260905103526 23 23 0.0 0.0 0.00 0.00 0.00 90 1013.6
20260905103432 23 23 0.0 0.0 0.00 0.00 0.00 90 1013.5
20260905103401 23 23 0.0 0.0 0.00 0.00 0.00 90 1013.5
20260905103310 23 23 0.0 0.0 0.00 0.00 0.00 91 1013.5
20260905103024 23 23 0.0 1.6 0.00 0.00 0.00 91 1013.5
20260905102936 23 23 0.0 3.2 0.00 0.00 0.00 90 1013.5
20260905102821 23 23 0.0 3.2 0.00 0.00 0.00 90 1013.4
20260905102728 23 23 0.0 3.2 0.00 0.00 0.00 90 1013.4
20260905102635 23 23 0.0 3.2 0.00 0.00 0.00 90 1013.3
20260905102523 23 23 0.0 3.2 0.00 0.00 0.00 90 1013.3
20260905102451 23 23 0.0 3.2 0.00 0.00 0.00 90 1013.3
20260905102321 23 23 0.0 3.2 0.00 0.00 0.00 90 1013.4
20260905102228 23 23 1.6 3.2 0.00 0.00 0.00 90 1013.2
20260905102135 23 23 1.6 3.2 0.00 0.00 0.00 90 1013.3
20260905102021 23 23 1.6 3.2 0.00 0.00 0.00 90 1013.3
20260905101948 23 23 1.6 3.2 0.00 0.00 0.00 90 1013.3
20260905101808 23 23 1.6 3.2 0.00 0.00 0.00 90 1013.3
20260905101521 23 23 1.6 3.2 0.00 0.00 0.00 91 1013.3
20260905101429 23 23 1.6 3.2 0.00 0.00 0.00 90 1013.3
20260905101317 23 23 1.6 3.2 0.00 0.00 0.00 90 1013.3
20260905101244 23 23 1.6 3.2 0.00 0.00 0.00 90 1013.3
20260905101133 23 23 1.6 3.2 0.00 0.00 0.00 91 1013.3
20260905101021 23 23 1.6 3.2 0.00 0.00 0.00 91 1013.3
20260905100926 23 23 1.6 3.2 0.00 0.00 0.00 91 1013.3
20260905100854 23 23 1.6 3.2 0.00 0.00 0.00 91 1013.2
20260905100739 23 23 1.6 3.2 0.00 0.00 0.00 91 1013.2
20260905100623 23 23 1.6 3.2 0.00 0.00 0.00 91 1013.3
20260905100531 23 23 1.6 3.2 0.00 0.00 0.00 91 1013.2
20260905100422 23 23 1.6 3.2 0.00 0.00 0.00 91 1013.3
20260905100329 23 23 1.6 3.2 0.00 0.00 0.00 91 1013.2
20260905100259 23 23 3.2 3.2 0.00 0.00 0.00 91 1013.2
20260905100034 23 23 3.2 3.2 0.00 0.00 0.00 91 1013.3
20260905095925 23 23 3.2 3.2 0.00 0.00 0.00 91 1013.3
20260905095832 23 23 1.6 3.2 0.00 0.00 0.00 91 1013.3
20260905095720 23 23 0.0 3.2 0.00 0.00 0.00 91 1013.3
20260905095628 23 23 0.0 0.0 0.00 0.00 0.00 92 1013.3
20260905095536 23 23 0.0 0.0 0.00 0.00 0.00 92 1013.3
20260905095422 23 23 0.0 0.0 0.00 0.00 0.00 92 1013.3
20260905095355 23 23 0.0 0.0 0.00 0.00 0.00 92 1013.3
20260905095221 23 23 0.0 0.0 0.00 0.00 0.00 91 1013.3
20260905095127 23 23 0.0 0.0 0.00 0.00 0.00 91 1013.2
20260905095034 23 23 0.0 0.0 0.00 0.00 0.00 92 1013.2
20260905094921 23 23 0.0 0.0 0.00 0.00 0.00 92 1013.3
20260905094850 23 23 0.0 1.6 0.00 0.00 0.00 92 1013.3
20260905094822 23 23 0.0 1.6 0.00 0.00 0.00 92 1013.3
20260905094533 23 23 0.0 1.6 0.00 0.00 0.00 92 1013.4
20260905094421 23 23 0.0 1.6 0.00 0.00 0.00 92 1013.4
20260905094329 23 23 0.0 1.6 0.00 0.00 0.00 91 1013.4
20260905094220 23 23 0.0 1.6 0.00 0.00 0.00 91 1013.3
20260905094127 23 23 0.0 1.6 0.00 0.00 0.00 91 1013.4
20260905094033 23 23 1.6 1.6 0.00 0.00 0.00 91 1013.3
20260905093921 23 23 0.0 1.6 0.00 0.00 0.00 91 1013.3
20260905093848 23 23 0.0 1.6 0.00 0.00 0.00 91 1013.2
20260905093733 23 23 0.0 1.6 0.00 0.00 0.00 91 1013.2
20260905093619 23 23 0.0 1.6 0.00 0.00 0.00 91 1013.2
20260905093528 23 23 0.0 1.6 0.00 0.00 0.00 91 1013.2
20260905093435 23 23 0.0 1.6 0.00 0.00 0.00 91 1013.2
20260905093323 23 23 0.0 1.6 0.00 0.00 0.00 91 1013.2
20260905093251 23 23 0.0 1.6 0.00 0.00 0.00 91 1013.2
20260905093029 23 23 0.0 3.2 0.00 0.00 0.00 91 1013.2
20260905092936 23 23 0.0 4.8 0.00 0.00 0.00 91 1013.2
20260905092843 23 23 0.0 4.8 0.00 0.00 0.00 90 1013.1
20260905092728 23 23 0.0 4.8 0.00 0.00 0.00 90 1013.2
20260905092635 23 23 0.0 4.8 0.00 0.00 0.00 91 1013.2
20260905092522 23 23 0.0 4.8 0.00 0.00 0.00 91 1013.3
20260905092433 23 23 0.0 4.8 0.00 0.00 0.00 91 1013.2
20260905092320 23 23 1.6 4.8 0.00 0.00 0.00 91 1013.2
20260905092226 23 23 3.2 4.8 0.00 0.00 0.00 91 1013.2
20260905092133 23 23 3.2 4.8 0.00 0.00 0.00 91 1013.2
20260905092040 23 23 3.2 4.8 0.00 0.00 0.00 91 1013.1
20260905091925 23 23 3.2 6.4 0.00 0.00 0.00 91 1013.1
20260905091837 23 23 3.2 6.4 0.00 0.00 0.00 91 1013.1
20260905091807 23 23 3.2 6.4 0.00 0.00 0.00 90 1013.1
20260905091520 23 23 3.2 6.4 0.00 0.00 0.00 90 1013.2
20260905091447 23 23 3.2 6.4 0.00 0.00 0.00 91 1013.1
20260905091333 23 23 3.2 6.4 0.00 0.00 0.00 91 1013.2
20260905091245 23 23 3.2 6.4 0.00 0.00 0.00 91 1013.2
20260905091131 23 5 4.8 6.4 0.00 0.00 0.00 90 1013.2
20260905091019 23 5 4.8 6.4 0.00 0.00 0.00 90 1013.2
20260905090945 23 5 4.8 6.4 0.00 0.00 0.00 90 1013.2
20260905090831 23 355 4.8 6.4 0.00 0.00 0.00 90 1013.1
20260905090718 23 360 4.8 6.4 0.00 0.00 0.00 90 1013.2
20260905090645 23 360 4.8 6.4 0.00 0.00 0.00 90 1013.1
20260905090535 23 360 4.8 6.4 0.00 0.00 0.00 90 1013.1
20260905090422 24 360 3.2 4.8 0.00 0.00 0.00 89 1013.1
20260905090329 24 360 1.6 4.8 0.00 0.00 0.00 89 1013.1
20260905090259 24 360 1.6 3.2 0.00 0.00 0.00 89 1013.1
20260905090037 24 360 1.6 1.6 0.00 0.00 0.00 89 1013.0
20260905085923 24 360 1.6 1.6 0.00 0.00 0.00 90 1013.1
20260905085830 24 360 1.6 1.6 0.00 0.00 0.00 90 1013.1
20260905085718 24 360 1.6 1.6 0.00 0.00 0.00 90 1013.1
20260905085646 24 360 1.6 1.6 0.00 0.00 0.00 90 1013.1
20260905085534 24 360 1.6 1.6 0.00 0.00 0.00 90 1013.1
20260905085444 24 360 0.0 1.6 0.00 0.00 0.00 90 1013.1
20260905085332 24 360 0.0 1.6 0.00 0.00 0.00 90 1013.1
20260905085219 24 360 0.0 0.0 0.00 0.00 0.00 90 1013.1
20260905085127 24 360 0.0 0.0 0.00 0.00 0.00 90 1013.1
20260905085033 24 360 0.0 0.0 0.00 0.00 0.00 90 1013.2
20260905084920 24 360 0.0 0.0 0.00 0.00 0.00 90 1013.2
20260905084831 24 360 0.0 0.0 0.00 0.00 0.00 90 1013.2
20260905084802 24 360 0.0 0.0 0.00 0.00 0.00 91 1013.2
20260905084535 24 360 0.0 0.0 0.00 0.00 0.00 91 1013.1
20260905084423 24 360 0.0 0.0 0.00 0.00 0.00 91 1013.1
20260905084333 24 360 0.0 0.0 0.00 0.00 0.00 90 1013.1
20260905084219 24 360 0.0 0.0 0.00 0.00 0.00 90 1013.1
20260905084126 24 360 0.0 0.0 0.00 0.00 0.00 90 1013.0
20260905084053 24 360 0.0 0.0 0.00 0.00 0.00 90 1013.1
20260905083918 24 360 0.0 0.0 0.00 0.00 0.00 90 1013.0
20260905083824 24 360 0.0 0.0 0.00 0.00 0.00 90 1013.0
20260905083736 24 360 0.0 0.0 0.00 0.00 0.00 89 1013.1
20260905083622 24 360 0.0 0.0 0.00 0.00 0.00 89 1013.1
20260905083530 24 360 0.0 0.0 0.00 0.00 0.00 89 1013.0
20260905083437 24 360 0.0 0.0 0.00 0.00 0.00 89 1013.1
20260905083323 24 360 0.0 0.0 0.00 0.00 0.00 89 1013.0
20260905083259 24 360 0.0 0.0 0.00 0.00 0.00 89 1013.0
20260905083052 24 360 0.0 0.0 0.00 0.00 0.00 89 1013.2
20260905082917 24 360 0.0 0.0 0.00 0.00 0.00 89 1013.1
20260905082825 24 360 0.0 0.0 0.00 0.00 0.00 89 1013.2
20260905082734 24 360 0.0 0.0 0.00 0.00 0.00 89 1013.1
20260905082626 24 360 0.0 0.0 0.00 0.00 0.00 89 1013.2
20260905082533 24 360 0.0 0.0 0.00 0.00 0.00 90 1013.1
20260905082420 24 360 0.0 0.0 0.00 0.00 0.00 90 1013.1
20260905082347 24 360 0.0 0.0 0.00 0.00 0.00 90 1013.1
20260905082233 24 360 0.0 0.0 0.00 0.00 0.00 90 1013.1
20260905082139 24 360 0.0 0.0 0.00 0.00 0.00 90 1013.1
20260905082026 24 360 0.0 0.0 0.00 0.00 0.00 90 1013.1
20260905081958 24 360 0.0 0.0 0.00 0.00 0.00 90 1013.1
20260905081844 24 360 0.0 1.6 0.00 0.00 0.00 90 1013.0
20260905081754 24 360 0.0 3.2 0.00 0.00 0.00 90 1013.0
20260905081528 24 360 0.0 3.2 0.00 0.00 0.00 90 1013.1
20260905081434 24 360 0.0 3.2 0.00 0.00 0.00 89 1012.9
20260905081326 24 360 0.0 3.2 0.00 0.00 0.00 89 1013.0
20260905081233 24 360 0.0 4.8 0.00 0.00 0.00 89 1013.1
20260905081119 24 360 0.0 4.8 0.00 0.00 0.00 89 1013.0
20260905081027 24 360 1.6 4.8 0.00 0.00 0.00 89 1013.0
20260905080933 24 360 3.2 4.8 0.00 0.00 0.00 88 1013.0
20260905080825 24 360 1.6 4.8 0.00 0.00 0.00 88 1013.0
20260905080733 24 360 3.2 4.8 0.00 0.00 0.00 88 1013.0
20260905080620 24 360 3.2 4.8 0.00 0.00 0.00 88 1013.0
20260905080526 24 360 3.2 4.8 0.00 0.00 0.00 88 1013.0
20260905080434 24 360 3.2 4.8 0.00 0.00 0.00 88 1013.0
20260905080341 24 360 3.2 4.8 0.00 0.00 0.00 88 1013.1
20260905080254 24 360 3.2 4.8 0.00 0.00 0.00 88 1013.1
20260905080026 24 360 3.2 4.8 0.00 0.00 0.00 88 1012.9
20260905075952 24 360 3.2 4.8 0.00 0.00 0.00 88 1012.9
20260905075817 24 360 3.2 4.8 0.00 0.00 0.00 88 1012.9
20260905075725 24 360 1.6 3.2 0.00 0.00 0.00 89 1012.9
20260905075636 24 360 3.2 3.2 0.00 0.00 0.00 88 1013.0
20260905075523 24 360 3.2 3.2 0.00 0.00 0.00 88 1012.9
20260905075430 24 360 1.6 3.2 0.00 0.00 0.00 88 1012.8
20260905075357 24 360 1.6 3.2 0.00 0.00 0.00 88 1012.8
20260905075242 24 360 1.6 3.2 0.00 0.00 0.00 88 1012.8
20260905075149 24 360 1.6 3.2 0.00 0.00 0.00 88 1012.8
20260905075034 24 360 1.6 1.6 0.00 0.00 0.00 88 1012.8
20260905074924 24 360 0.0 1.6 0.00 0.00 0.00 88 1012.8
20260905074852 24 360 0.0 0.0 0.00 0.00 0.00 88 1012.8
20260905074822 24 360 0.0 0.0 0.00 0.00 0.00 89 1012.8
20260905074555 24 360 0.0 0.0 0.00 0.00 0.00 89 1012.8
20260905074420 24 360 0.0 0.0 0.00 0.00 0.00 89 1012.8
20260905074326 24 360 0.0 0.0 0.00 0.00 0.00 89 1012.8
20260905074236 24 360 0.0 0.0 0.00 0.00 0.00 89 1012.8
20260905074123 24 360 0.0 0.0 0.00 0.00 0.00 89 1012.8
20260905074031 24 360 0.0 0.0 0.00 0.00 0.00 88 1012.8
20260905073917 24 360 0.0 1.6 0.00 0.00 0.00 88 1012.8
20260905073823 24 360 0.0 1.6 0.00 0.00 0.00 88 1012.7
20260905073751 24 360 0.0 1.6 0.00 0.00 0.00 88 1012.8
20260905073622 24 360 0.0 1.6 0.00 0.00 0.00 88 1012.8
20260905073530 24 360 0.0 1.6 0.00 0.00 0.00 88 1012.9
20260905073436 24 360 0.0 1.6 0.00 0.00 0.00 88 1012.8
20260905073342 24 360 0.0 1.6 0.00 0.00 0.00 87 1012.9
20260905073318 24 360 0.0 3.2 0.00 0.00 0.00 87 1012.9
20260905073029 24 360 0.0 3.2 0.00 0.00 0.00 87 1012.8
20260905072936 25 360 1.6 3.2 0.00 0.00 0.00 88 1012.9
20260905072823 25 360 1.6 3.2 0.00 0.00 0.00 88 1012.9
20260905072750 25 360 1.6 3.2 0.00 0.00 0.00 88 1012.9
20260905072637 25 360 1.6 3.2 0.00 0.00 0.00 88 1012.9
20260905072527 25 360 1.6 3.2 0.00 0.00 0.00 88 1012.8
20260905072433 25 360 1.6 3.2 0.00 0.00 0.00 88 1012.9
20260905072320 25 360 1.6 3.2 0.00 0.00 0.00 88 1012.9
20260905072229 25 360 1.6 3.2 0.00 0.00 0.00 88 1012.8
20260905072137 25 360 1.6 3.2 0.00 0.00 0.00 88 1012.9
20260905072023 25 360 1.6 3.2 0.00 0.00 0.00 88 1012.9
20260905071933 25 360 1.6 3.2 0.00 0.00 0.00 88 1012.9
20260905071811 25 360 1.6 3.2 0.00 0.00 0.00 88 1012.9
20260905071524 25 360 1.6 3.2 0.00 0.00 0.00 88 1012.8
20260905071435 25 360 1.6 3.2 0.00 0.00 0.00 88 1012.9
20260905071343 25 360 1.6 3.2 0.00 0.00 0.00 88 1012.9
20260905071250 25 360 1.6 3.2 0.00 0.00 0.00 87 1012.9
20260905071136 25 360 1.6 3.2 0.00 0.00 0.00 87 1012.9
20260905071023 25 360 1.6 3.2 0.00 0.00 0.00 87 1012.9
20260905070949 25 360 1.6 3.2 0.00 0.00 0.00 87 1013.0
20260905070835 25 360 1.6 3.2 0.00 0.00 0.00 87 1013.1
20260905070725 25 360 1.6 4.8 0.00 0.00 0.00 87 1013.0
20260905070631 25 360 1.6 4.8 0.00 0.00 0.00 87 1013.1
20260905070536 25 360 1.6 4.8 0.00 0.00 0.00 87 1013.1
20260905070443 25 360 1.6 4.8 0.00 0.00 0.00 87 1013.2
20260905070349 25 360 1.6 4.8 0.00 0.00 0.00 87 1013.2
20260905070259 25 360 1.6 4.8 0.00 0.00 0.00 86 1013.2
20260905070036 25 360 3.2 4.8 0.00 0.00 0.00 86 1013.3
20260905065923 25 360 3.2 4.8 0.00 0.00 0.00 86 1013.3
20260905065850 25 360 3.2 4.8 0.00 0.00 0.00 86 1013.3
20260905065736 25 360 3.2 4.8 0.00 0.00 0.00 86 1013.2
20260905065622 25 360 3.2 4.8 0.00 0.00 0.00 86 1013.2
20260905065529 25 360 1.6 3.2 0.00 0.00 0.00 86 1013.2
20260905065419 25 360 1.6 3.2 0.00 0.00 0.00 86 1013.2
20260905065346 25 360 0.0 3.2 0.00 0.00 0.00 85 1013.2
20260905065231 25 360 0.0 3.2 0.00 0.00 0.00 85 1013.2
20260905065137 25 360 0.0 3.2 0.00 0.00 0.00 85 1013.3
20260905065025 25 360 0.0 3.2 0.00 0.00 0.00 85 1013.3
20260905064932 25 360 1.6 3.2 0.00 0.00 0.00 85 1013.4
20260905064823 25 360 1.6 4.8 0.00 0.00 0.00 85 1013.4
20260905064754 25 360 1.6 4.8 0.00 0.00 0.00 85 1013.4
20260905064525 25 360 1.6 4.8 0.00 0.00 0.00 85 1013.5
20260905064434 25 360 1.6 4.8 0.00 0.00 0.00 85 1013.5
20260905064325 25 360 1.6 4.8 0.00 0.00 0.00 84 1013.4
20260905064232 25 360 1.6 4.8 0.00 0.00 0.00 84 1013.5
20260905064119 25 360 3.2 4.8 0.00 0.00 0.00 84 1013.4
20260905064025 25 360 3.2 4.8 0.00 0.00 0.00 84 1013.4
20260905063932 25 360 1.6 4.8 0.00 0.00 0.00 84 1013.4
20260905063823 25 360 1.6 4.8 0.00 0.00 0.00 85 1013.5
20260905063751 25 360 1.6 4.8 0.00 0.00 0.00 85 1013.4
20260905063634 25 360 1.6 4.8 0.00 0.00 0.00 85 1013.5
20260905063523 25 355 1.6 4.8 0.00 0.00 0.00 85 1013.4
20260905063450 25 355 3.2 4.8 0.00 0.00 0.00 85 1013.5
20260905063335 25 355 3.2 4.8 0.00 0.00 0.00 85 1013.5
20260905063310 25 355 3.2 4.8 0.00 0.00 0.00 85 1013.5
20260905063043 25 42 3.2 4.8 0.00 0.00 0.00 85 1013.5
20260905062929 25 42 3.2 4.8 0.00 0.00 0.00 86 1013.5
20260905062837 25 42 3.2 3.2 0.00 0.00 0.00 86 1013.5
20260905062723 25 42 1.6 3.2 0.00 0.00 0.00 86 1013.6
20260905062630 25 42 1.6 3.2 0.00 0.00 0.00 86 1013.5
20260905062521 25 42 1.6 4.8 0.00 0.00 0.00 86 1013.5
20260905062428 25 42 1.6 4.8 0.00 0.00 0.00 86 1013.6
20260905062335 25 42 1.6 4.8 0.00 0.00 0.00 86 1013.5
20260905062222 25 42 1.6 4.8 0.00 0.00 0.00 86 1013.5